ECMWFFLT1_500_spd_000.txt.gz
Wind_Speed
25 26 26 27 27 28 28 28 29 29 29 29 29 29 29 30 30 31 32 32 33 34 35 36 38 40 41 42 43 42 42 42 40 40 42 45 49 51 53 53 51 48 44 44 49 49 46 46 46 44 42 42 41 40 40 41 43 44 44 44 45 46 46
26 26 27 27 28 28 29 29 30 30 30 31 31 31 30 30 30 31 32 33 33 34 35 36 38 39 41 42 43 43 44 44 44 43 43 45 47 50 54 55 56 55 48 43 45 49 50 49 49 48 45 45 44 42 42 43 43 43 43 44 45 46 47
27 27 27 27 28 28 29 29 30 30 31 31 31 31 31 32 31 31 32 33 34 34 35 36 37 39 41 42 44 45 45 45 46 46 46 46 47 49 51 53 55 58 56 51 45 45 49 52 51 49 47 47 47 47 46 46 45 44 43 44 44 46 47
26 27 27 27 28 28 28 28 29 29 30 30 31 31 32 32 32 32 33 33 34 35 35 37 38 39 41 42 44 46 46 47 47 48 49 48 48 49 50 51 51 52 55 55 51 46 46 50 50 48 46 46 46 49 51 50 49 47 46 46 44 44 46
27 27 27 27 28 28 29 29 29 29 29 30 30 30 31 32 33 33 33 34 34 35 36 37 38 39 41 43 44 46 48 48 49 50 51 51 50 50 51 52 51 51 52 53 52 50 47 48 49 48 45 42 37 39 46 51 53 51 49 48 45 43 44
27 27 28 28 28 29 30 30 30 30 30 30 30 30 31 31 32 33 34 34 35 36 37 38 39 40 41 43 44 47 48 49 50 51 52 53 53 54 54 54 54 54 54 53 52 52 51 50 50 49 48 44 37 32 35 43 51 53 52 51 48 45 44
28 28 29 29 29 30 31 32 33 33 33 33 32 32 33 33 33 34 34 35 36 36 37 38 40 41 42 43 44 46 48 50 51 52 53 54 54 56 57 57 58 57 56 56 55 54 53 53 52 51 53 52 46 40 37 38 43 48 51 52 52 50 48
29 30 30 30 31 32 33 33 34 35 36 36 36 36 36 36 36 36 36 36 37 37 38 39 40 42 43 44 45 46 48 50 52 53 54 54 55 57 58 58 59 59 59 59 59 57 55 55 54 53 55 57 54 50 47 43 41 43 45 49 52 54 53
31 32 32 32 33 34 34 35 36 37 37 38 39 39 40 40 40 40 40 39 39 39 39 40 41 42 44 45 46 47 48 49 51 52 54 56 56 57 58 58 59 59 59 59 60 59 57 56 56 55 54 56 57 56 54 52 48 45 45 48 50 51 54
33 34 34 34 35 36 36 37 38 38 39 39 40 41 42 42 43 43 43 43 42 41 40 40 41 43 44 46 47 48 49 49 51 52 53 56 57 57 58 59 59 58 59 59 60 60 59 58 58 58 56 55 56 57 57 55 53 50 48 51 53 50 51
35 36 36 36 37 38 39 39 40 40 41 41 41 42 43 44 45 45 45 45 44 44 43 42 41 42 44 46 47 49 49 50 51 52 53 55 56 57 58 59 59 59 59 59 60 60 61 60 59 59 59 58 58 59 57 54 53 53 51 53 55 54 53
38 38 39 40 40 40 41 41 42 42 43 43 43 44 45 45 46 46 47 47 46 45 44 44 43 43 43 45 47 48 49 50 51 52 54 55 56 57 58 58 59 59 60 60 60 61 61 62 61 61 61 61 61 61 60 57 54 52 52 53 55 58 60
39 40 41 42 42 42 43 43 44 44 44 45 45 46 46 47 47 47 47 47 46 45 45 45 45 44 44 44 46 47 48 49 51 52 53 55 56 57 58 59 58 59 60 60 61 61 62 62 62 62 63 63 63 63 63 60 54 50 50 52 53 56 60
41 41 42 43 44 44 45 45 46 46 46 47 47 47 47 47 47 47 48 48 47 46 45 46 46 46 45 45 46 46 47 49 50 51 52 54 56 57 57 58 59 59 59 60 61 61 62 63 63 62 63 63 63 63 64 62 55 51 52 52 50 50 52
42 42 43 44 45 46 47 48 48 48 48 49 49 48 48 48 48 47 48 48 48 48 47 46 46 47 47 47 47 47 47 48 49 50 50 52 54 57 58 58 59 60 60 60 60 61 62 63 63 62 62 62 62 62 64 64 58 54 54 55 54 51 50
43 43 44 45 46 48 49 50 50 49 49 49 49 49 49 48 48 48 48 48 49 49 49 48 47 47 48 48 48 48 48 48 49 50 50 50 51 54 57 58 59 59 61 61 60 60 61 62 63 63 61 61 62 62 62 63 62 59 57 58 58 57 57
43 44 45 46 47 48 49 50 49 49 48 48 48 48 48 48 48 48 48 48 49 50 50 50 50 49 49 49 49 49 49 49 49 50 50 51 51 52 54 57 58 58 60 61 61 60 60 61 62 62 62 61 61 61 61 61 63 63 60 58 59 60 62
43 44 45 46 47 48 48 48 48 48 47 47 47 47 47 47 48 48 48 48 49 50 50 51 51 51 50 50 51 50 50 51 50 50 50 51 52 52 53 54 56 57 58 60 61 61 60 59 61 61 62 61 61 61 61 60 61 64 62 60 60 61 63
42 43 43 44 45 46 46 47 47 47 48 48 48 47 47 47 47 48 48 48 49 50 50 51 52 52 52 52 52 52 52 52 52 52 52 51 51 52 53 53 54 55 56 57 58 60 59 59 59 60 61 62 62 62 61 60 60 61 60 60 62 63 64
40 40 41 41 42 43 44 45 46 47 48 48 48 48 48 47 47 48 48 48 49 50 50 51 52 53 53 53 53 54 54 53 53 53 53 53 53 52 52 53 53 53 54 55 56 57 58 58 58 59 59 60 62 62 62 60 60 59 57 57 59 63 65
36 37 38 39 40 41 42 44 45 47 48 48 48 48 48 48 48 48 48 49 49 50 51 51 52 53 54 55 55 55 55 55 55 55 54 55 55 54 53 53 53 53 53 53 54 55 57 57 57 58 58 59 60 61 62 61 59 59 58 56 57 59 62
35 36 37 39 40 41 42 44 46 47 48 48 48 48 48 47 48 48 49 49 49 50 51 51 52 53 54 55 56 56 56 56 56 56 56 56 56 56 55 54 54 53 53 53 53 54 55 56 57 57 58 58 59 60 61 60 60 59 57 56 56 56 56
34 35 37 38 39 40 42 43 44 46 46 47 47 47 47 47 48 48 49 49 49 50 50 51 52 53 54 55 56 57 57 57 57 58 57 57 57 57 57 57 55 55 54 54 54 54 55 56 56 56 57 58 58 59 59 60 60 59 58 57 58 58 57
34 35 36 38 39 40 42 43 44 45 45 45 46 46 47 47 48 49 49 49 50 50 50 51 51 53 54 54 55 57 58 58 58 58 58 58 58 58 58 58 58 57 55 55 54 54 55 55 55 56 57 58 58 59 59 60 60 60 59 58 60 63 63
35 36 37 39 40 41 43 44 45 45 45 45 46 46 47 48 49 49 50 51 51 51 51 51 52 53 54 55 55 57 58 58 59 59 59 59 59 59 59 59 60 59 58 56 55 55 55 56 56 56 57 58 58 59 60 60 61 60 59 59 60 63 64
36 38 39 41 42 43 44 46 46 46 46 46 46 46 47 49 50 50 51 52 52 52 52 52 53 54 54 55 56 57 57 58 59 59 59 60 60 60 60 60 60 60 60 59 58 57 56 56 57 57 58 58 58 59 60 61 61 61 60 60 60 61 61
38 40 41 43 44 45 46 47 47 47 47 47 47 48 49 50 51 51 52 52 53 53 54 54 54 55 55 56 57 57 57 57 58 58 59 60 60 60 60 61 61 60 61 61 60 59 58 57 58 59 59 59 58 58 59 61 61 62 61 61 61 61 61
40 42 43 44 46 46 47 48 49 49 49 48 49 50 51 52 52 52 53 53 53 54 54 55 56 56 56 56 57 58 58 58 58 58 59 60 60 60 60 61 61 61 61 61 61 61 61 60 60 60 60 60 60 59 59 60 61 62 61 61 62 62 62
43 44 45 46 47 48 48 49 49 49 48 49 50 51 53 53 53 53 53 54 54 54 54 55 56 56 57 57 58 59 59 59 59 59 59 60 61 61 61 61 61 61 61 61 61 61 63 63 62 61 60 60 61 59 58 59 60 61 61 61 62 62 62
44 45 46 47 48 48 48 49 50 49 49 49 50 52 53 53 53 54 53 54 54 54 54 54 54 55 56 57 58 59 60 61 61 61 61 61 62 62 62 62 63 62 61 61 60 61 62 64 65 62 60 61 62 60 59 58 60 61 61 61 62 62 63
46 46 47 47 48 49 49 49 50 50 50 50 51 52 52 53 53 52 52 52 52 53 53 53 53 54 55 57 58 59 60 62 62 63 63 63 63 64 64 64 64 64 63 61 61 61 61 63 65 64 61 61 62 61 59 58 59 60 60 60 61 62 62
46 47 47 48 48 49 50 50 50 50 50 51 51 52 52 51 51 50 50 51 52 53 53 53 54 55 55 57 58 59 61 62 62 63 64 64 65 65 65 65 65 65 64 63 63 62 62 63 64 65 63 61 61 61 60 58 58 59 59 59 60 61 61
47 47 47 48 49 50 50 51 51 50 50 50 51 50 49 49 49 50 51 52 53 54 55 54 55 55 55 55 56 57 59 60 60 61 62 62 63 63 64 65 65 65 65 64 64 63 63 63 64 65 64 61 60 61 60 58 57 57 58 58 58 60 61
46 46 47 48 49 50 50 51 51 50 49 49 49 48 48 49 50 51 52 53 53 53 53 53 53 52 53 53 53 55 56 56 57 58 59 59 60 60 60 61 62 64 64 65 64 63 63 62 63 64 64 61 59 60 60 58 56 56 56 56 56 59 61
45 46 47 48 49 49 50 50 49 48 47 47 47 47 49 50 50 50 50 49 49 49 49 50 50 51 52 52 53 55 56 56 57 57 57 57 56 56 57 57 58 61 62 62 62 62 61 61 62 63 61 59 59 59 59 58 56 55 54 53 54 57 60
44 46 47 48 48 48 48 48 47 46 45 45 46 47 48 48 47 46 45 45 46 47 48 49 50 51 51 50 50 51 51 51 52 53 53 52 51 51 52 53 55 57 57 58 59 59 59 60 61 60 59 58 59 59 59 57 55 53 53 51 51 56 60
45 47 47 47 47 46 46 45 44 43 44 45 46 46 45 44 43 42 42 43 45 47 49 50 49 47 44 42 41 41 42 44 46 48 48 47 46 45 46 48 50 51 52 55 57 57 58 59 58 58 58 59 59 59 58 56 53 52 51 49 49 53 58

ECMWFFLT1_500_spd_003.txt.gz
Wind_Speed
25 25 25 25 25 25 26 26 26 26 26 26 26 25 26 26 26 26 27 27 27 26 27 28 28 29 30 31 31 32 33 34 34 35 35 36 36 36 36 36 40 46 47 46 45 45 46 46 45 43 42 41 41 40 40 39 38 37 37 37 38 39 39
25 25 25 25 25 26 26 27 27 28 28 28 28 28 27 27 27 27 27 28 28 28 28 28 29 30 30 30 31 31 32 33 34 35 36 37 37 37 37 36 37 43 47 48 47 48 48 47 44 42 42 43 45 45 44 43 41 40 39 38 37 38 38
24 24 25 25 26 26 27 27 28 29 29 29 30 30 30 29 28 28 28 28 29 29 29 29 30 30 30 31 31 32 32 33 34 35 36 37 38 38 38 37 37 39 44 47 48 48 50 51 48 44 42 43 45 47 47 46 45 43 42 40 39 38 38
24 25 25 26 27 27 27 28 28 29 30 31 31 32 32 31 31 30 30 29 29 30 30 30 30 31 31 31 32 33 33 34 35 36 36 37 38 39 39 39 39 40 42 45 47 47 50 51 51 50 49 46 43 43 46 48 47 46 45 44 42 41 41
25 26 26 26 28 28 28 29 30 30 31 32 33 33 33 33 32 32 31 31 30 30 30 31 31 31 32 32 33 34 34 34 35 36 38 38 39 40 40 40 42 43 43 45 46 48 49 51 53 54 54 53 50 46 46 48 49 49 49 48 46 45 45
26 26 26 27 28 29 29 30 30 31 32 32 33 33 33 34 33 32 32 31 31 30 30 31 31 32 33 33 34 35 36 36 36 37 39 40 40 41 42 42 43 45 46 47 48 50 50 51 52 52 51 54 57 55 52 50 50 51 51 50 49 49 49
26 27 27 27 28 30 30 30 31 32 32 32 33 33 33 33 33 33 32 32 31 31 31 31 31 32 33 34 35 36 37 38 38 39 40 41 42 43 43 44 44 45 47 48 50 51 52 52 52 51 49 50 54 55 53 51 50 49 48 48 47 46 46
27 27 28 28 28 30 31 31 31 32 33 33 33 33 33 33 34 34 33 33 33 32 32 32 32 32 33 34 36 37 38 39 40 40 41 43 43 44 45 45 46 47 48 48 49 51 53 54 54 53 51 51 52 53 52 51 51 47 45 46 46 42 38
29 29 29 29 29 31 32 32 32 33 34 35 35 35 35 36 36 36 36 36 36 35 35 35 34 34 35 35 36 38 39 40 41 41 42 43 45 46 46 47 48 48 49 49 49 50 52 54 55 55 55 54 53 53 53 52 52 49 45 47 49 47 42
31 31 31 31 31 32 33 33 33 34 34 35 35 36 37 37 38 38 39 39 39 39 38 37 37 37 37 37 37 38 40 41 42 43 43 44 45 47 48 49 49 50 50 50 50 51 52 53 55 56 57 57 57 57 56 55 54 51 50 50 51 53 53
33 33 33 33 33 34 35 35 35 35 35 35 36 36 37 37 38 39 39 40 41 41 41 40 40 40 39 39 38 39 40 42 43 44 45 45 46 47 49 50 51 51 51 51 52 52 53 54 55 55 56 58 59 60 60 59 57 55 54 54 53 53 56
35 35 35 36 36 37 37 37 37 38 38 38 38 38 38 39 40 40 41 41 42 42 43 43 42 42 42 42 41 40 41 42 43 45 47 47 48 49 49 50 52 52 53 53 53 53 54 55 56 56 56 57 59 61 61 62 61 57 56 56 55 55 56
34 35 36 37 37 38 39 40 40 40 40 40 40 40 40 41 41 42 43 43 44 44 45 45 45 45 45 45 44 44 43 42 43 45 47 49 50 50 50 51 52 53 54 54 54 54 55 56 57 57 58 57 58 59 60 62 61 57 55 57 57 56 57
33 35 36 37 38 39 40 41 41 41 41 42 42 42 42 42 43 44 44 45 45 46 47 47 47 47 47 47 47 46 46 45 44 45 46 49 51 52 52 52 53 54 55 56 55 56 56 56 57 58 59 59 58 58 59 60 60 57 55 57 58 58 58
32 34 36 37 38 39 40 41 41 42 42 42 42 43 43 44 45 45 46 47 47 48 48 49 50 50 50 49 49 48 48 48 47 46 46 48 50 52 53 53 53 54 55 56 56 56 56 57 58 58 58 59 59 59 59 59 60 58 55 56 58 59 60
33 34 35 36 37 39 40 40 41 42 42 43 44 44 45 46 47 47 48 49 49 50 50 51 52 52 52 52 51 50 50 50 49 48 48 48 49 51 53 54 54 54 55 56 57 57 57 57 58 59 58 58 59 59 60 60 61 60 57 54 55 59 61
34 34 35 36 37 39 40 41 42 42 43 44 45 46 47 47 48 49 49 50 50 51 51 52 53 53 53 54 53 52 51 50 50 50 50 49 50 51 52 54 55 56 55 56 56 57 57 57 58 59 59 59 59 59 60 61 61 61 59 55 54 56 59
34 35 36 37 38 39 41 41 42 43 44 46 46 47 48 48 48 49 49 49 50 51 51 52 53 53 53 54 54 53 52 51 50 50 51 51 51 51 52 53 55 56 56 56 56 55 56 57 58 59 60 60 60 60 60 61 61 61 60 57 54 55 57
35 36 37 38 39 40 41 41 42 43 44 45 46 47 47 47 47 48 48 49 49 50 51 52 53 53 53 53 53 53 53 52 51 51 51 51 52 52 52 53 55 57 57 56 56 55 55 56 57 58 59 60 60 60 60 60 61 61 61 59 55 56 58
36 37 38 39 40 40 40 41 42 42 43 44 44 45 45 46 46 47 47 48 49 49 50 51 52 53 53 53 54 53 53 53 52 51 51 51 52 53 53 54 55 57 57 57 56 56 55 56 57 57 58 59 60 61 61 60 61 61 61 60 58 57 58
37 38 38 39 39 40 40 40 40 41 41 42 42 43 44 44 45 46 47 48 48 49 50 50 51 52 52 53 54 54 54 54 53 53 52 52 52 53 53 54 55 56 58 58 58 57 56 55 56 56 57 58 59 60 60 60 60 61 61 62 60 59 56
37 38 38 39 39 39 39 39 39 39 39 40 40 41 42 43 44 45 46 47 48 49 50 50 51 51 52 53 54 54 55 54 54 54 54 53 53 53 53 54 55 56 58 59 59 59 57 56 55 55 56 57 58 58 59 59 59 60 60 62 61 59 57
38 38 39 39 39 39 39 38 38 39 39 40 40 41 42 43 45 45 46 47 47 48 49 49 50 51 52 53 54 54 55 55 55 55 55 55 54 54 54 54 55 56 58 59 60 60 59 58 56 55 55 56 57 58 58 58 59 59 59 60 60 60 58
39 39 39 40 40 39 39 39 39 39 39 40 40 40 42 43 46 47 48 48 49 49 49 49 50 51 52 54 54 55 55 56 56 56 56 56 56 55 55 56 56 57 58 59 60 61 61 60 59 57 56 55 56 57 57 57 57 58 58 58 59 60 60
39 39 40 40 40 40 40 39 39 39 39 38 37 38 40 42 45 47 49 50 50 50 51 51 51 52 53 55 56 56 57 57 57 57 57 58 57 57 57 57 57 58 58 59 60 61 62 62 61 60 59 57 56 57 58 57 57 57 57 57 57 58 59
40 40 40 41 41 41 40 40 40 40 38 37 37 39 41 43 46 47 49 50 51 51 52 52 53 54 55 56 57 58 58 58 58 58 58 59 59 59 59 59 59 58 59 60 60 61 62 62 62 62 62 60 58 57 58 58 57 56 56 57 57 57 57
40 41 41 41 41 41 41 41 41 41 39 39 40 42 44 47 48 49 49 50 51 51 52 52 54 55 56 57 58 59 59 59 59 59 59 59 60 60 60 61 60 60 60 60 61 61 62 63 63 63 63 62 60 58 58 58 58 57 57 56 56 55 55
41 41 41 42 42 42 42 43 42 42 41 41 43 45 48 49 50 49 49 49 50 51 51 52 53 54 54 55 57 58 59 59 60 60 59 59 60 60 60 61 61 61 61 61 61 62 63 63 64 64 63 63 62 61 59 58 58 58 58 56 55 55 55
42 43 42 43 43 43 43 43 43 43 43 44 46 49 50 51 50 49 49 49 50 51 51 52 53 53 54 55 56 57 58 58 59 59 59 59 60 60 60 61 61 62 62 61 61 62 63 64 64 64 64 63 63 62 61 59 58 58 58 58 56 55 55
42 43 43 43 43 43 44 44 44 44 44 46 49 51 52 52 51 50 50 51 51 51 52 53 53 54 55 55 55 56 57 57 58 58 59 59 60 60 60 61 61 62 62 62 62 62 63 64 64 64 64 64 64 63 62 60 60 59 59 59 58 57 56
43 43 43 43 44 44 44 44 44 45 46 49 52 52 53 53 52 52 52 52 53 53 53 54 54 54 53 54 54 54 55 56 56 57 57 58 59 59 60 61 61 62 62 62 63 63 63 64 64 64 64 64 65 64 62 61 61 60 59 59 59 58 58
42 43 43 43 43 44 44 44 44 46 49 51 52 53 53 54 53 53 53 54 55 55 54 53 52 52 52 52 53 53 54 55 55 56 56 56 57 58 59 60 61 61 61 62 63 64 64 64 64 64 64 65 65 64 62 61 62 62 60 60 60 60 59
41 42 43 43 43 43 43 43 46 49 50 51 52 52 53 53 53 54 55 55 55 53 52 51 51 52 53 53 54 54 55 55 55 55 55 55 56 57 58 59 60 60 61 61 62 63 64 65 65 65 65 66 65 63 62 63 63 62 62 60 60 61 61
41 42 42 43 42 42 42 45 47 49 50 50 51 52 53 53 54 56 56 54 52 51 51 52 53 55 55 55 55 55 54 54 54 54 53 53 53 54 56 57 58 58 59 60 60 62 63 64 65 66 66 66 65 65 65 65 64 63 62 61 60 61 62
41 41 41 41 41 41 43 46 48 49 50 51 51 53 53 54 55 56 54 52 51 51 52 54 56 57 56 55 53 52 51 50 51 51 51 50 50 51 52 53 54 55 57 58 58 59 61 63 64 65 66 67 67 69 69 67 66 65 63 61 60 61 62
40 40 40 40 40 42 44 46 47 49 51 51 52 53 54 55 55 54 52 51 51 53 55 56 56 55 54 51 50 49 50 51 52 53 52 51 50 51 51 52 53 55 57 58 58 58 59 61 63 64 65 67 69 71 71 70 67 66 64 61 60 61 61
38 38 38 39 40 42 44 46 48 50 51 52 53 54 54 54 53 51 50 50 53 55 56 55 53 52 50 50 50 50 50 50 50 50 49 47 46 46 47 48 51 53 55 56 57 57 58 59 60 62 64 67 69 70 72 70 68 67 65 62 60 59 59

ECMWFFLT1_500_spd_006.txt.gz
Wind_Speed
26 26 25 26 26 26 26 26 26 25 24 24 24 24 24 24 24 24 24 24 24 24 25 26 26 26 26 26 26 26 27 27 28 28 29 30 30 31 33 32 32 33 33 36 42 45 45 45 46 46 44 43 41 40 40 40 40 40 40 40 40 40 41
25 26 26 26 26 26 26 26 27 26 26 25 24 24 24 23 24 24 24 24 24 24 24 25 25 25 26 26 25 26 26 27 27 27 28 29 30 30 32 32 32 33 33 34 37 42 44 45 47 49 48 47 45 42 42 42 42 41 41 41 41 40 40
25 26 27 27 26 26 26 26 26 27 27 27 26 25 24 24 24 24 24 24 25 25 25 25 25 25 26 26 26 26 26 27 27 27 27 28 29 29 31 32 33 33 33 34 36 38 41 42 45 49 51 51 49 47 46 46 45 45 44 43 42 41 40
24 26 27 27 27 26 26 26 27 27 27 28 27 27 26 25 25 24 24 25 25 25 26 26 26 26 26 27 27 27 27 28 28 28 28 29 30 30 30 31 32 33 33 34 36 37 39 40 40 45 51 53 52 50 49 48 47 47 47 46 45 44 43
24 25 26 27 27 27 27 27 27 27 27 27 28 28 28 27 27 26 25 25 26 26 26 27 28 28 28 28 28 29 29 29 30 30 29 30 31 31 31 31 32 33 34 34 35 37 39 39 39 40 46 51 52 51 51 51 49 48 47 46 47 47 47
23 24 24 26 27 27 28 27 27 28 28 28 28 28 28 28 28 28 27 27 27 27 27 27 28 29 30 30 30 30 30 30 31 31 31 31 32 32 32 33 33 33 34 35 35 36 38 39 39 39 41 47 52 52 53 53 52 51 49 47 46 46 46
23 23 23 25 26 27 27 28 28 28 28 28 29 29 29 29 29 28 29 28 28 28 28 28 28 29 30 31 31 31 31 32 32 32 32 32 33 34 34 35 35 35 35 36 36 37 38 39 40 40 40 44 49 51 53 53 53 53 51 49 50 48 45
22 22 23 23 25 26 27 27 28 28 28 28 29 29 30 30 30 30 29 30 29 29 29 29 29 29 30 31 32 32 33 33 33 33 33 33 34 35 36 36 37 37 37 38 39 39 39 40 41 41 42 44 47 49 51 52 53 52 49 49 51 52 50
23 22 22 23 24 26 27 27 27 28 28 28 29 29 30 30 31 31 31 32 32 31 31 30 30 30 31 31 32 33 34 34 35 35 35 35 35 36 37 38 38 39 40 40 41 41 41 41 42 42 43 45 47 48 49 52 53 51 49 49 50 50 51
25 24 24 24 25 27 28 28 28 29 29 29 30 30 31 31 32 33 33 34 35 35 34 34 33 33 33 33 34 34 35 36 37 38 37 38 38 38 38 39 39 41 42 42 43 43 43 44 44 44 45 46 48 49 50 51 53 52 51 51 50 49 49
28 28 27 27 27 28 29 29 29 29 30 30 31 31 32 33 33 34 34 35 36 37 37 37 37 37 36 37 37 37 37 37 38 39 40 41 41 41 41 41 41 42 43 44 44 45 46 46 47 46 46 47 49 50 51 52 52 52 52 53 52 51 51
30 30 30 30 30 30 31 31 30 31 31 31 32 32 33 34 34 35 35 36 37 37 38 38 39 39 39 39 39 40 40 39 39 40 41 42 43 43 44 44 44 44 44 45 45 47 47 48 49 49 49 49 50 51 52 53 53 51 51 53 53 53 54
31 32 32 32 32 33 33 33 33 32 32 33 33 34 35 36 36 37 38 38 38 38 39 39 40 40 41 41 41 42 42 42 42 41 41 42 43 44 45 46 46 46 46 46 47 48 49 50 51 51 52 52 51 52 53 54 54 52 50 52 53 53 55
29 31 32 33 34 34 34 34 33 33 33 33 33 34 35 36 37 38 39 39 40 40 40 41 42 42 43 43 44 44 44 44 44 44 44 44 44 44 45 46 47 48 48 48 48 49 50 51 52 53 54 54 53 53 54 55 55 54 51 51 53 53 54
28 29 31 32 32 32 32 32 32 32 32 32 32 33 34 35 36 37 38 39 40 41 42 42 43 44 45 45 46 46 46 46 46 46 46 46 46 46 46 46 47 49 50 50 50 51 51 52 53 54 55 56 55 55 56 56 57 56 52 51 53 54 55
29 30 30 30 30 30 29 29 30 30 30 31 32 33 34 35 36 37 38 39 40 41 42 43 44 45 46 47 48 49 49 49 49 49 48 48 49 49 49 48 48 49 50 52 53 53 54 54 54 55 55 56 57 57 57 58 58 58 55 52 53 55 55
32 32 32 32 32 30 29 29 30 31 31 32 33 34 35 36 37 37 38 39 41 42 43 44 45 46 47 48 49 50 51 51 52 52 51 51 51 51 52 51 51 51 51 52 54 55 56 56 56 56 56 57 58 58 58 59 59 59 58 55 54 56 56
34 34 35 35 33 32 31 31 33 34 34 35 35 36 36 36 37 37 38 39 40 41 42 44 45 46 47 48 49 50 51 52 53 53 53 54 54 53 53 53 53 54 54 53 54 55 57 58 59 59 58 58 59 59 59 60 60 60 60 57 55 56 57
36 37 37 36 34 33 33 34 35 36 36 36 37 37 37 37 37 38 38 39 39 40 41 42 43 44 45 46 48 49 50 51 52 53 54 54 55 55 55 55 54 55 56 55 55 55 57 59 60 61 61 60 60 60 60 60 61 61 61 60 57 56 57
39 39 38 38 37 36 36 37 37 37 37 38 38 38 37 37 38 38 38 39 39 39 40 41 41 42 43 44 46 47 49 50 51 53 53 54 55 56 56 57 56 56 56 57 57 57 57 58 60 61 62 62 62 62 61 61 61 61 62 62 59 57 56
41 41 40 40 39 39 38 38 38 38 38 38 39 39 38 38 38 39 38 39 39 39 40 41 42 42 43 45 46 47 48 49 50 51 53 53 54 55 56 57 57 57 57 57 57 58 58 58 59 60 62 63 63 63 62 62 62 62 62 62 61 59 57
42 43 42 42 42 41 41 40 39 39 38 39 39 39 39 39 39 39 39 39 40 40 40 40 41 42 44 45 47 48 49 50 50 51 52 53 54 55 56 56 57 57 57 58 58 58 58 59 59 60 61 63 64 64 63 63 63 63 63 63 61 60 58
43 44 43 43 44 44 43 42 41 40 39 39 40 40 40 40 39 40 40 40 40 39 39 39 40 42 43 45 46 48 50 51 52 53 53 53 54 55 56 57 57 58 58 58 58 59 59 60 60 60 60 62 64 64 64 64 63 63 64 63 62 60 58
43 45 47 46 45 44 44 43 42 41 41 41 41 41 40 40 40 40 40 41 41 40 40 41 42 43 45 46 48 49 50 52 53 55 55 55 55 55 56 57 58 58 58 59 59 59 60 60 61 61 61 61 63 64 65 65 64 64 64 64 63 61 59
41 44 49 49 47 45 44 43 43 43 43 42 42 42 40 40 40 40 41 42 42 42 42 44 46 47 48 50 51 52 53 54 54 56 57 57 57 57 58 58 58 59 59 59 60 60 60 61 61 62 62 62 62 63 65 65 65 64 64 64 64 62 60
45 47 53 53 50 48 45 44 45 45 44 43 42 41 40 40 40 42 43 43 43 43 45 48 50 51 52 53 55 56 57 58 57 57 57 58 59 59 59 60 60 60 60 61 61 61 62 62 62 63 63 63 63 63 64 65 66 65 65 65 65 63 61
49 51 56 55 51 49 46 45 46 45 44 43 42 41 41 40 41 43 43 43 44 45 48 50 52 54 54 55 57 59 61 63 61 59 58 59 59 60 61 61 61 61 61 62 62 63 63 63 63 64 64 64 64 63 64 65 66 66 65 66 65 64 61
54 55 57 56 51 47 44 44 44 44 43 42 42 41 41 42 43 44 44 45 46 48 50 52 54 56 57 58 59 61 64 65 63 61 60 60 60 61 61 61 61 61 61 61 62 63 65 65 65 65 65 65 64 64 64 64 65 66 66 66 66 64 62
55 56 59 57 51 45 43 43 43 43 43 42 42 42 42 43 44 45 46 47 48 50 52 54 56 58 59 61 62 64 65 64 62 61 60 61 61 62 62 62 62 62 61 61 62 63 64 65 66 66 66 65 65 65 64 64 65 66 67 66 66 65 63
53 57 59 58 56 51 46 43 43 42 42 42 43 43 43 44 45 46 47 48 49 51 53 55 58 60 61 63 64 65 63 61 61 60 60 61 61 61 61 62 62 62 62 62 62 62 63 64 65 66 66 66 66 65 64 65 66 66 67 67 66 65 64
53 56 56 56 57 55 48 43 41 41 42 43 43 43 44 45 46 47 48 49 50 52 54 56 59 61 63 64 64 63 61 60 60 59 58 57 56 56 57 57 58 59 60 61 62 62 63 64 65 65 65 66 66 65 64 65 66 66 67 68 67 65 64
54 55 54 54 53 49 42 39 40 41 43 44 44 44 45 46 47 48 49 50 52 54 55 58 61 63 64 64 63 61 60 58 57 55 54 53 52 53 53 54 55 57 58 59 60 61 62 63 64 64 64 65 65 64 64 66 66 66 67 68 67 66 65
56 58 55 50 46 42 39 40 42 44 45 46 46 46 47 47 47 48 49 51 54 56 58 61 63 64 63 61 60 59 57 55 54 53 52 52 52 53 54 55 56 57 59 60 61 61 62 62 63 62 63 64 63 63 64 66 66 67 68 68 68 68 66
48 51 49 45 42 42 43 45 46 46 47 46 47 47 47 46 46 48 50 53 56 58 61 63 63 62 61 59 58 56 55 54 54 54 54 54 54 53 52 53 54 55 58 59 61 62 62 62 62 61 60 61 61 62 64 65 66 68 68 67 68 68 66
40 40 41 41 42 44 45 46 46 46 47 47 47 47 45 45 46 49 52 55 58 60 61 61 61 60 59 57 56 55 55 56 58 58 55 52 50 49 48 49 50 53 55 57 58 59 60 60 60 59 58 58 58 59 62 63 65 67 68 68 69 68 66
43 42 42 42 42 43 44 45 45 46 46 47 46 45 44 45 47 50 53 56 58 59 59 59 59 58 56 55 55 56 57 59 59 58 54 49 47 47 48 50 52 55 57 58 58 57 57 57 56 56 55 56 56 57 59 61 63 66 67 68 69 68 65
47 46 44 42 39 39 41 43 44 45 45 45 44 43 44 46 49 52 54 55 56 56 57 57 56 55 55 55 56 58 59 59 57 55 52 49 49 49 48 49 51 52 53 54 54 55 55 54 54 54 54 54 55 56 57 58 61 64 66 67 68 67 65

ECMWFFLT1_500_spd_009.txt.gz
Wind_Speed
23 24 25 26 26 26 25 24 23 22 22 22 23 23 23 24 25 25 25 25 25 25 26 27 28 28 28 28 28 27 27 28 27 28 29 29 29 29 30 32 32 31 30 32 34 36 39 40 42 43 44 45 46 45 44 44 43 43 43 44 44 43 43
22 23 24 26 26 26 26 25 24 23 21 21 22 22 23 23 24 25 25 25 24 25 25 26 27 27 27 26 26 26 26 27 27 28 29 30 30 30 31 33 34 34 33 34 35 36 38 39 41 43 44 46 47 47 47 46 44 43 43 43 44 43 43
21 23 24 25 26 26 25 25 25 24 23 22 21 21 22 22 23 24 24 24 24 24 24 25 25 26 26 26 25 25 26 26 27 27 28 29 30 30 30 32 33 34 35 36 36 37 38 39 39 41 43 45 47 48 48 47 47 45 45 45 44 43 43
21 23 24 25 25 25 25 25 25 25 24 23 22 21 21 21 22 22 23 23 24 24 24 24 25 25 26 26 26 26 26 26 26 27 28 29 30 30 30 30 31 33 33 35 36 37 38 39 38 39 41 43 45 47 48 48 48 47 46 47 46 44 43
22 23 23 24 25 25 25 25 24 24 24 24 23 22 21 21 21 22 22 23 24 24 24 24 25 25 25 26 26 26 27 27 27 27 28 28 29 30 29 30 30 31 31 32 34 35 36 37 38 38 39 42 43 44 47 49 49 49 49 49 48 46 45
21 22 23 24 25 26 26 25 24 23 24 24 23 23 22 22 22 22 22 23 23 24 25 25 25 26 26 27 27 27 28 28 28 28 28 29 29 29 29 30 30 30 30 31 32 33 34 35 36 37 38 41 42 42 44 47 47 48 50 50 50 50 49
21 22 23 24 25 25 25 25 24 23 23 24 23 23 23 23 23 23 23 23 23 24 24 25 25 26 27 28 28 29 29 29 29 29 29 30 30 30 30 30 31 31 31 31 32 32 33 34 35 35 36 38 40 40 42 44 44 45 45 47 50 52 52
22 22 23 23 24 25 25 25 24 23 23 23 23 23 22 22 23 23 23 23 23 23 24 24 25 26 26 28 29 30 30 31 31 31 30 30 31 31 31 31 32 33 33 33 33 33 34 34 35 35 36 37 38 39 40 41 43 43 41 42 48 51 52
23 23 23 23 24 24 24 24 23 23 23 23 23 23 22 22 23 23 23 23 23 23 23 24 25 25 26 27 28 29 30 31 32 33 32 32 31 32 32 33 33 33 33 34 35 35 35 36 36 36 37 37 38 38 39 39 40 41 40 41 45 49 51
25 25 24 24 24 24 24 24 23 23 23 23 23 23 23 23 24 24 24 24 24 24 25 25 26 26 27 28 28 29 30 31 32 33 34 34 34 34 34 34 34 35 35 35 36 36 37 37 37 38 39 39 39 39 39 39 39 40 41 42 44 47 50
27 26 26 25 25 25 25 25 24 24 24 24 25 25 25 25 25 25 25 25 26 26 27 27 28 28 29 29 30 30 31 32 33 34 35 36 37 37 37 37 37 38 38 38 38 38 39 39 39 40 40 41 41 41 41 40 39 40 41 42 44 45 48
29 29 28 27 27 27 27 26 26 26 26 27 27 28 28 28 28 27 27 27 27 28 28 29 30 30 31 31 31 32 33 33 34 35 36 37 38 39 40 41 42 42 41 41 41 41 41 42 42 42 43 43 43 44 43 43 41 40 41 43 44 45 48
27 28 29 29 29 30 30 29 29 29 29 29 30 30 30 31 31 30 30 30 30 31 31 32 32 33 33 34 34 34 35 35 36 36 37 38 39 40 41 43 44 45 45 45 45 45 45 44 44 44 45 45 46 46 46 46 44 41 41 43 45 46 48
25 25 26 27 28 29 30 30 31 31 32 32 32 32 32 33 33 33 33 33 33 33 33 34 34 35 36 36 37 37 37 37 38 39 39 39 40 40 41 43 44 46 46 47 47 47 47 47 47 47 47 47 47 48 48 48 48 45 43 44 46 46 48
25 26 27 27 27 27 27 28 29 30 31 32 33 33 33 33 34 34 34 34 34 34 35 35 36 36 37 38 38 39 39 39 40 41 41 42 42 42 43 43 45 46 47 48 48 49 49 50 50 50 49 49 49 49 50 50 50 49 45 45 46 47 48
27 28 29 30 30 29 29 28 27 28 29 30 31 31 32 32 33 33 34 34 34 35 35 36 37 37 38 39 39 40 41 41 42 42 43 44 45 45 45 46 46 47 48 49 50 50 51 51 52 52 52 52 51 51 52 52 52 51 49 47 47 48 48
28 29 31 32 34 33 33 31 29 29 29 30 30 30 29 29 29 30 32 33 34 35 36 37 37 38 39 39 40 40 41 42 43 43 44 45 46 47 47 48 49 50 50 51 51 52 53 53 53 53 53 54 54 54 54 54 54 54 53 50 49 50 50
31 32 33 34 36 37 36 34 32 32 32 32 32 31 29 28 29 30 31 33 34 35 36 36 37 38 38 39 39 39 40 41 42 42 43 44 45 46 47 47 48 50 52 53 53 54 54 55 55 56 56 56 56 57 56 56 56 56 55 53 52 52 52
36 37 38 38 39 40 40 38 36 34 34 34 33 33 32 30 30 31 32 33 33 33 34 34 34 35 37 37 38 38 38 39 39 40 41 42 43 44 45 45 46 47 50 51 53 54 55 56 57 57 58 58 58 58 59 59 59 59 58 57 55 54 54
39 40 42 42 40 41 43 43 41 38 37 36 36 35 35 34 34 34 35 35 35 34 33 33 33 34 35 36 36 36 36 37 37 38 39 40 41 43 44 44 45 46 47 49 50 52 53 55 57 58 58 59 59 60 60 61 61 62 61 60 59 57 56
44 43 44 44 43 43 46 47 46 43 41 39 39 38 38 38 37 37 37 37 37 36 35 34 34 35 34 34 34 35 36 36 37 38 39 40 41 42 43 44 45 45 47 48 49 50 51 53 55 56 58 59 60 60 61 61 62 63 63 63 62 61 59
47 46 47 48 48 49 50 51 50 47 44 42 42 42 41 40 40 39 39 40 40 39 38 37 36 36 35 34 34 35 36 37 38 40 41 41 42 43 44 44 45 46 47 48 50 51 52 53 54 55 56 58 59 60 61 61 62 63 64 65 64 63 62
50 50 50 51 51 51 51 52 51 47 45 43 43 43 44 43 43 42 42 42 42 42 41 40 38 38 37 36 36 36 37 38 40 42 42 43 44 45 46 47 48 49 50 50 51 52 53 54 55 56 56 57 58 59 60 61 62 62 64 65 65 65 64
52 53 54 54 54 53 53 53 51 47 47 47 46 45 46 47 46 45 44 44 45 44 43 42 41 40 40 39 38 37 38 40 42 43 44 45 46 47 49 50 51 52 53 53 55 56 56 56 56 57 58 58 58 59 60 60 61 62 63 64 65 65 65
53 54 55 55 55 55 54 54 53 51 50 51 49 46 46 47 48 48 47 46 46 45 44 44 43 43 42 41 41 40 40 42 43 44 45 47 48 49 50 51 53 53 54 55 56 58 59 59 58 58 59 60 60 61 61 61 61 61 63 64 65 65 65
54 54 54 54 53 52 52 52 54 54 51 49 47 45 44 45 47 50 50 48 47 46 45 45 45 45 45 44 43 42 42 43 44 45 46 48 49 50 52 53 54 55 56 57 59 60 62 62 62 60 60 60 61 62 63 63 62 62 63 64 64 64 64
55 56 57 57 55 55 56 56 55 55 54 53 52 49 46 44 46 49 51 49 49 47 46 46 46 46 46 45 45 45 45 45 46 46 47 49 51 53 55 56 57 58 60 61 63 65 65 65 63 62 62 61 61 62 63 64 65 64 64 64 64 64 63
57 58 59 60 60 61 64 64 60 57 55 56 56 54 51 49 48 47 47 48 49 48 47 47 48 47 47 46 46 47 47 47 47 48 49 51 53 55 57 59 60 62 64 66 69 70 69 67 65 63 63 62 62 62 63 65 66 66 66 66 65 64 63
59 60 60 60 61 63 65 65 63 60 57 56 56 55 53 50 47 44 44 47 48 48 47 47 47 48 48 48 48 49 49 49 49 50 52 54 56 58 60 61 62 64 67 71 73 73 71 68 66 64 63 63 63 63 63 64 66 67 67 67 66 65 64
61 62 60 58 57 58 59 58 56 55 53 52 53 53 51 49 47 47 49 50 49 47 47 47 47 48 49 50 51 51 51 52 52 52 54 56 59 61 62 63 65 68 71 73 73 71 69 68 66 64 63 63 63 63 63 64 66 67 67 67 67 66 65
60 61 58 54 52 50 50 49 45 44 45 46 48 48 46 45 46 49 51 50 46 45 46 47 48 50 51 52 53 53 53 53 53 54 56 59 61 63 64 66 69 72 73 72 70 67 66 65 64 63 63 63 63 63 62 63 65 66 67 68 67 67 66
58 57 54 52 50 49 47 44 40 39 41 44 46 46 44 43 45 48 48 45 43 44 46 49 51 52 53 54 54 54 54 55 55 57 59 61 63 64 67 69 72 72 70 68 65 63 62 62 62 62 63 64 63 62 62 63 64 66 67 68 68 67 66
55 55 52 51 54 57 56 54 52 50 47 47 48 49 47 46 44 43 44 44 46 48 50 52 53 54 54 54 54 54 55 57 58 60 62 64 65 66 69 71 70 68 65 63 62 62 62 63 64 64 64 65 64 63 63 63 64 65 66 66 67 67 66
51 52 50 50 51 52 52 54 55 54 50 48 47 48 48 46 42 42 45 48 51 51 50 51 52 53 53 52 53 56 58 59 61 63 64 65 67 69 70 68 65 63 62 62 63 63 63 63 64 64 64 65 65 65 65 65 64 64 64 64 65 65 65
47 49 51 49 47 46 45 45 45 45 43 42 42 44 46 47 46 48 51 53 52 50 49 50 51 51 51 52 55 58 60 62 64 66 66 67 70 70 67 63 61 62 63 63 63 62 61 60 59 59 60 61 61 62 63 63 63 62 62 62 63 63 63
44 47 47 46 45 45 46 44 43 40 37 36 37 39 41 44 46 48 50 49 48 47 48 49 49 50 51 53 56 59 62 64 66 67 68 69 70 67 63 61 62 63 62 60 58 57 57 57 57 57 58 59 60 61 62 61 60 59 59 59 60 61 61
41 43 41 40 40 40 40 41 43 42 38 36 37 37 36 37 39 41 43 44 45 46 47 48 48 50 52 55 58 60 63 64 65 66 68 68 66 63 63 63 63 60 57 55 54 55 56 56 57 57 57 58 59 59 60 60 59 58 57 56 56 57 59

ECMWFFLT1_500_spd_015.txt.gz
Wind_Speed
22 23 23 24 24 24 25 25 26 26 27 27 27 27 25 24 24 24 25 26 27 26 26 26 26 26 26 26 28 31 33 34 34 33 32 31 30 29 29 29 27 24 23 23 27 29 28 30 34 39 44 46 46 46 46 45 45 44 44 43 42 42 42
22 22 22 23 23 24 24 25 25 26 26 26 26 25 24 23 23 23 24 25 26 26 26 26 26 26 25 26 27 29 31 32 33 34 34 34 34 33 32 31 30 28 25 24 25 26 25 25 28 31 36 39 40 41 43 44 45 46 46 45 43 42 41
22 22 22 22 23 23 24 25 25 25 25 25 24 23 23 22 22 22 23 24 25 25 25 25 25 25 25 25 26 27 28 29 30 31 32 34 34 34 32 32 31 30 28 26 25 26 25 25 25 27 30 32 35 36 37 39 41 42 44 45 46 45 43
21 21 21 21 22 22 24 24 25 25 25 24 23 22 21 21 20 21 22 23 24 24 24 24 24 25 25 24 25 26 27 27 28 28 29 30 31 31 30 30 30 31 30 28 27 26 25 25 25 26 27 29 32 33 34 35 36 37 39 41 43 44 44
20 20 21 21 21 22 22 23 24 25 25 24 23 22 21 20 20 20 20 21 23 23 23 23 23 23 24 24 24 25 25 26 26 26 26 27 29 29 28 28 28 29 29 29 28 27 26 26 26 27 28 29 31 32 34 34 34 34 35 36 38 39 41
19 19 20 20 21 21 22 22 23 24 24 24 23 22 21 21 20 19 20 20 21 22 23 22 22 22 22 23 23 23 24 24 24 25 25 25 26 27 27 27 27 27 28 29 29 28 28 28 28 29 29 31 33 34 36 37 36 35 35 35 36 37 38
20 19 19 19 20 21 21 21 22 23 24 24 23 22 22 21 21 20 20 20 21 21 22 22 21 21 21 21 22 22 22 22 23 23 23 23 24 25 25 25 25 26 26 27 28 28 28 28 29 29 30 31 33 35 37 38 38 38 37 36 36 37 38
21 21 20 19 19 20 20 21 22 22 23 24 23 22 22 22 22 21 21 21 21 21 22 22 22 21 21 21 21 21 21 21 21 21 22 22 23 23 24 25 25 25 25 26 26 27 27 27 28 28 29 30 31 32 34 36 37 38 39 39 39 38 38
22 21 21 21 21 21 21 21 21 22 23 23 23 21 21 21 22 22 22 21 21 21 22 22 22 21 21 20 20 20 20 21 21 21 21 22 23 23 24 24 25 25 25 26 26 26 27 27 28 28 28 29 29 30 31 31 33 35 36 38 40 40 39
21 21 21 21 22 22 22 22 22 22 23 23 23 22 20 20 20 21 21 21 21 21 22 22 22 21 21 21 21 21 21 21 21 21 22 22 23 23 24 25 25 26 26 26 27 27 28 28 29 29 29 29 29 29 29 29 29 31 33 35 37 38 39
20 20 20 20 21 22 22 22 22 22 23 23 23 22 21 20 19 20 20 21 21 21 21 22 22 22 21 21 21 22 22 22 23 23 23 23 23 24 25 25 26 27 27 28 28 28 29 30 30 30 30 30 30 30 30 28 28 30 32 33 35 36 37
22 21 20 19 19 20 21 21 21 21 22 23 23 23 22 21 20 20 20 21 21 22 22 22 22 22 22 22 22 23 23 24 24 24 25 25 25 25 26 26 27 28 29 30 30 30 31 31 32 32 32 32 32 31 31 30 28 30 32 33 35 36 36
24 22 20 19 20 20 20 20 20 19 19 21 21 22 23 23 22 22 21 21 22 22 23 23 23 23 24 24 24 25 25 26 26 26 27 27 28 28 28 29 29 29 30 31 32 32 33 33 33 34 34 35 35 34 34 33 32 32 34 34 35 36 37
24 22 21 20 20 21 20 19 19 17 17 18 18 19 20 21 22 22 22 22 22 23 24 24 24 25 25 26 26 27 27 28 28 29 29 30 30 31 31 31 32 32 32 33 33 33 34 35 35 36 36 36 37 37 37 37 36 35 36 38 37 37 38
24 24 23 22 21 21 20 20 20 18 17 17 17 18 18 19 19 20 20 20 21 22 23 24 24 25 25 26 28 29 29 30 30 31 32 32 33 33 33 34 34 34 35 35 36 36 36 37 37 38 38 39 39 39 39 39 38 38 38 40 41 41 41
27 27 26 24 23 23 22 21 21 21 21 21 20 20 19 19 19 20 20 21 21 21 22 23 24 24 25 26 27 28 29 30 31 32 32 33 33 34 34 35 35 36 36 37 37 38 39 39 39 40 40 41 41 42 42 41 41 40 40 40 42 43 43
31 30 28 26 26 25 25 24 23 22 23 24 24 23 21 19 19 20 21 22 23 23 23 24 24 25 26 26 27 28 29 30 30 31 32 32 33 34 34 35 35 35 36 36 37 38 39 39 40 40 40 41 42 43 44 44 44 43 42 41 42 44 45
34 33 31 29 28 27 27 27 25 24 24 24 25 26 25 23 21 21 22 23 24 24 24 25 25 26 27 29 29 30 30 31 31 31 31 32 32 33 34 35 35 35 35 35 36 37 37 38 38 39 39 40 41 42 43 44 44 44 42 40 39 42 45
37 36 35 33 31 29 29 29 28 28 28 28 27 27 27 26 26 25 26 26 27 26 26 27 28 29 30 31 32 33 33 33 33 33 32 32 32 32 33 33 34 34 33 34 34 34 35 35 35 35 36 36 38 39 40 42 43 44 44 41 39 39 42
39 39 38 36 35 33 32 31 31 31 31 31 31 30 30 30 30 30 31 32 32 31 32 33 34 34 33 33 33 34 35 36 36 35 35 34 34 34 33 33 33 33 33 33 34 34 34 33 32 32 32 33 35 36 37 39 40 41 42 42 40 39 40
42 42 42 40 39 37 36 35 35 35 35 34 34 34 34 35 35 35 36 37 37 38 39 40 38 36 35 35 35 36 37 38 38 38 37 37 37 36 36 36 35 35 35 35 35 35 35 34 33 32 33 33 34 35 36 37 37 38 39 40 39 38 38
42 43 44 44 42 41 41 40 39 39 38 37 37 38 37 38 40 41 41 42 42 41 42 42 41 39 37 37 37 37 38 39 39 38 38 38 39 39 39 38 38 38 38 38 37 37 37 37 36 35 34 35 35 35 36 36 37 37 38 39 39 38 38
44 43 44 45 45 45 45 44 44 43 42 40 41 42 41 41 42 44 45 44 44 42 41 41 42 40 38 39 39 39 39 40 41 40 40 39 39 40 41 41 40 40 41 41 40 40 40 40 40 38 37 36 36 36 36 37 38 39 39 40 40 40 40
49 48 47 47 47 47 47 47 47 47 46 45 45 45 44 44 45 45 46 46 45 43 42 43 44 41 39 39 40 41 42 43 42 42 42 41 41 41 42 43 43 44 45 44 43 42 42 43 43 42 40 39 39 39 39 39 40 40 41 42 42 43 43
54 53 52 50 50 49 49 49 50 50 50 50 50 49 47 47 47 48 48 49 48 47 47 48 48 45 43 41 42 43 44 46 46 45 45 45 45 45 44 44 46 47 48 47 45 45 45 45 46 45 44 42 41 42 42 43 43 43 43 44 45 46 47
56 55 54 53 52 52 51 51 51 52 52 52 53 53 53 51 50 50 50 50 49 48 48 48 47 47 46 45 45 44 43 44 45 45 45 46 47 47 45 44 46 48 49 48 47 47 47 47 47 47 46 45 44 44 44 45 46 46 47 48 49 51 52
56 56 55 54 54 53 53 53 53 53 54 54 54 54 56 56 54 52 51 51 50 49 49 49 49 50 49 47 47 45 44 45 45 45 46 47 47 47 46 45 46 47 48 47 46 47 48 49 49 49 48 47 47 47 46 47 48 49 50 52 54 55 56
57 57 57 56 56 55 55 55 56 56 55 55 55 55 55 56 56 54 53 52 52 52 52 52 52 52 52 51 49 47 47 48 49 49 51 51 50 50 50 50 50 49 49 48 47 48 49 50 50 50 50 50 50 50 50 51 52 53 54 56 58 60 61
57 57 57 57 57 57 57 57 57 57 56 56 55 55 55 56 56 56 55 54 54 53 53 54 54 53 53 52 50 49 48 48 48 49 51 52 52 53 54 55 56 55 54 54 55 55 54 53 53 52 53 53 53 53 54 55 56 57 58 61 62 63 63
56 56 56 56 56 57 57 57 57 57 57 57 57 57 57 57 57 56 56 57 57 57 57 57 56 55 54 53 51 49 49 49 48 49 50 51 52 53 54 56 58 58 58 59 60 61 60 58 56 55 55 55 56 56 57 58 59 61 63 64 64 64 64
56 56 56 56 56 56 57 57 57 58 58 58 58 58 58 58 58 58 58 58 57 56 55 54 53 52 52 52 51 50 50 49 48 48 48 47 47 48 51 53 55 57 57 58 58 59 60 60 58 57 57 57 58 58 59 61 63 65 66 65 64 63 63
56 56 56 56 56 56 56 56 56 57 57 57 57 58 58 57 55 52 50 49 47 47 48 49 51 51 51 51 50 50 50 50 49 48 46 44 42 43 45 48 50 52 54 55 55 56 57 59 59 59 59 60 60 60 62 65 67 67 65 63 62 63 64
55 55 55 55 55 55 54 54 54 54 54 54 53 54 54 53 50 47 47 47 48 50 51 50 48 46 44 44 44 44 46 48 49 49 48 46 45 45 45 46 48 50 52 53 54 55 57 59 60 60 61 62 62 64 66 67 67 65 64 63 64 65 66
55 55 55 55 55 54 53 53 53 53 52 51 51 50 51 51 51 52 53 53 54 54 52 49 47 44 43 43 44 45 46 48 50 51 51 51 51 51 50 50 50 51 53 54 55 56 57 58 60 61 62 63 65 66 67 67 66 65 65 66 67 67 68
55 55 55 55 55 55 54 54 53 53 52 51 51 51 50 50 50 50 51 51 50 49 47 47 49 49 49 49 50 50 51 52 53 54 54 54 55 55 54 54 53 54 55 56 57 57 58 60 61 62 63 64 65 66 67 67 67 67 68 68 68 69 71
56 55 55 55 55 55 55 54 54 53 53 53 53 52 50 48 47 46 47 46 45 44 43 43 43 45 46 47 48 48 49 50 51 52 52 51 52 53 53 53 53 54 55 56 57 58 59 61 61 62 62 63 64 66 67 67 68 68 67 68 69 72 73
56 55 55 55 55 55 55 55 55 55 54 53 53 52 49 47 45 44 45 44 42 41 40 38 39 41 43 44 45 46 47 47 47 47 46 47 48 49 49 50 51 52 53 54 55 56 58 59 60 62 63 64 66 67 67 66 66 67 69 71 72 71 69

ECMWFFLT1_500_spd_021.txt.gz
Wind_Speed
25 25 25 25 25 26 26 26 26 26 25 24 24 24 24 24 24 24 25 25 25 25 26 26 26 27 27 27 28 28 28 27 27 26 27 28 28 28 28 27 27 27 28 28 27 23 20 18 18 18 18 19 22 28 37 43 43 42 41 36 35 37 40
23 24 24 25 25 26 25 25 25 24 24 23 22 22 22 22 22 23 23 23 24 24 24 25 26 27 27 27 28 28 28 28 27 26 26 28 29 30 30 30 30 30 30 30 29 27 24 20 20 21 22 22 21 22 26 32 35 38 42 40 36 35 37
22 23 23 24 24 24 24 23 23 22 22 21 21 21 21 21 21 21 21 21 21 22 23 24 25 26 27 27 28 28 28 28 28 27 26 27 29 30 30 32 33 33 32 32 32 31 30 29 27 27 27 26 25 24 23 25 28 31 37 42 40 35 32
21 22 22 23 23 23 22 22 21 20 20 20 20 20 20 20 20 20 20 19 20 21 21 22 23 25 26 26 27 27 27 28 28 27 26 26 27 28 30 31 33 34 34 35 34 34 33 33 31 31 31 30 28 26 24 25 26 27 31 39 43 42 37
20 21 21 21 21 20 20 20 19 19 18 18 18 18 19 19 20 19 19 19 19 19 20 21 22 23 24 24 25 25 25 26 27 27 26 25 26 27 28 29 31 32 33 33 33 33 33 32 31 30 30 30 28 27 26 26 25 26 29 33 38 41 40
19 20 20 20 19 19 18 18 18 17 17 17 17 17 17 18 18 18 18 18 18 19 19 19 20 22 22 23 23 23 23 23 24 25 25 25 24 25 25 26 28 29 30 30 31 30 30 29 29 28 28 27 27 26 26 26 24 25 28 30 32 35 37
18 18 19 19 18 18 17 17 17 17 17 17 17 17 17 17 17 17 17 17 18 19 19 19 19 20 21 21 21 21 21 21 22 23 23 23 23 22 23 24 25 26 27 28 28 28 27 26 26 26 26 25 25 25 25 25 25 25 25 25 26 29 34
17 18 18 18 18 17 17 17 18 18 18 18 18 18 17 17 17 17 17 17 17 18 19 19 19 19 20 20 20 20 20 20 20 21 22 22 22 21 21 22 23 24 25 26 26 25 25 24 24 24 24 24 23 24 24 24 24 25 25 24 23 25 27
18 17 18 18 18 18 17 18 18 18 19 19 19 18 18 18 18 17 17 17 17 17 18 19 19 19 20 20 20 19 19 19 19 20 21 21 21 20 19 19 20 21 23 23 23 22 22 21 21 22 22 22 22 22 23 23 24 24 24 24 24 24 23
19 18 18 18 18 18 18 18 19 19 19 19 19 19 18 18 18 18 17 17 17 17 18 18 18 19 19 19 20 19 18 18 19 19 20 20 20 20 19 18 18 19 20 21 21 20 19 19 19 19 19 19 20 21 21 22 22 23 23 23 24 23 22
20 19 19 19 19 19 19 20 20 19 19 19 19 19 19 19 19 18 18 18 17 17 18 18 19 19 19 19 19 19 19 18 18 18 19 19 20 20 19 18 18 18 18 19 19 18 18 17 17 18 18 18 18 19 20 21 22 23 22 23 24 23 22
21 21 20 20 20 21 21 21 21 21 20 19 19 19 19 19 19 19 19 18 18 18 18 19 19 19 20 19 19 19 19 18 18 18 18 18 19 19 19 19 18 18 18 18 18 18 18 18 17 18 18 18 18 19 20 20 22 23 23 23 24 24 24
23 22 22 21 21 22 22 23 23 23 22 20 19 17 17 17 18 18 18 18 18 19 19 20 20 20 21 21 20 20 20 19 19 19 18 18 19 19 19 20 20 19 19 19 19 19 19 19 19 19 19 20 20 20 21 21 22 24 25 25 25 26 26
23 23 23 22 21 23 23 24 24 23 22 21 20 18 17 16 16 16 16 16 16 17 18 19 20 21 21 22 22 22 22 22 21 21 20 20 20 20 20 20 21 21 21 21 21 21 22 22 22 21 22 22 22 23 23 23 24 25 26 27 27 28 29
26 25 24 23 23 23 24 24 24 24 23 22 21 20 19 18 17 16 16 15 15 15 16 16 17 18 19 20 21 22 23 24 24 24 23 23 23 22 22 22 22 23 23 23 24 24 24 25 25 25 25 25 25 25 26 26 26 27 28 29 29 30 31
29 27 26 25 26 26 26 26 26 26 25 24 22 22 21 20 19 18 18 17 17 17 16 16 16 17 17 18 19 20 21 22 23 24 25 25 25 25 24 24 24 24 25 25 26 26 27 28 28 28 28 28 29 29 29 29 29 30 30 31 32 32 33
31 30 30 29 29 30 30 29 28 28 28 27 25 24 24 22 21 20 20 20 20 19 19 18 17 17 18 18 18 18 19 20 21 22 23 24 24 24 24 24 25 25 26 26 27 28 28 29 30 30 31 31 32 32 32 32 33 32 32 33 34 35 35
35 34 33 34 34 33 33 32 30 29 30 30 30 28 27 25 24 23 23 22 22 21 22 21 20 20 19 20 20 20 19 19 20 20 21 22 23 23 23 23 24 24 25 26 27 28 29 29 30 31 31 32 33 33 34 35 35 35 35 35 35 36 37
37 37 36 36 36 35 35 34 32 31 32 33 34 32 29 28 27 26 26 25 24 24 23 23 24 24 24 23 24 24 23 22 22 22 23 23 23 24 25 25 26 26 27 27 27 28 29 30 31 31 32 32 32 33 33 35 36 37 37 37 37 37 37
38 39 41 41 39 38 37 36 35 36 36 35 34 34 32 30 29 29 29 29 28 28 27 26 26 26 27 26 27 27 27 26 26 26 27 28 28 29 30 30 31 31 31 31 30 30 31 31 31 32 33 33 33 33 33 33 34 36 37 38 38 38 38
39 40 42 44 43 41 40 37 34 35 37 37 36 36 36 35 34 33 33 32 32 32 32 30 30 30 30 30 30 31 31 30 30 30 29 30 31 32 33 33 33 32 32 33 33 33 34 34 34 34 35 36 36 36 36 35 34 34 35 36 37 38 38
42 42 43 45 45 43 42 39 36 35 37 37 38 39 39 39 39 38 38 38 37 37 36 35 34 34 35 35 36 36 35 35 35 34 33 33 32 31 31 31 31 32 33 34 34 34 35 36 36 37 38 38 39 39 39 39 38 37 37 37 37 37 38
45 46 47 48 48 47 46 45 43 42 40 40 40 42 42 42 42 41 41 41 41 41 41 40 38 38 39 39 40 40 39 39 39 39 38 37 36 35 35 35 35 36 37 38 38 38 38 38 38 39 39 40 41 41 42 42 42 41 41 40 40 41 40
47 48 49 50 50 50 49 48 47 46 45 45 44 44 45 44 44 44 44 43 43 43 44 43 41 41 42 43 43 43 42 41 41 41 42 42 41 40 40 40 41 41 41 42 42 42 42 42 42 42 42 42 43 44 44 44 44 45 45 44 44 44 44
48 50 50 51 51 51 50 49 49 49 49 49 48 47 47 46 45 46 46 45 45 46 46 44 43 43 44 44 45 45 45 44 43 43 45 46 45 44 43 43 43 43 43 44 44 45 45 46 46 45 45 45 46 47 47 47 46 47 47 47 46 46 47
50 51 51 51 51 51 51 50 50 50 50 51 51 51 50 49 49 49 49 49 48 48 49 47 46 47 47 47 47 48 48 47 46 46 46 47 47 47 46 46 46 46 46 46 46 47 48 48 49 49 50 50 49 50 50 50 49 49 49 49 49 49 50
53 53 53 53 53 53 53 53 52 52 51 51 52 52 52 52 53 53 52 52 52 52 51 49 49 51 51 51 51 51 51 50 49 48 49 48 49 49 49 49 48 48 49 49 48 48 49 50 51 52 53 53 53 52 52 52 52 51 51 51 51 52 52
56 57 56 56 56 56 56 56 55 55 54 53 52 53 53 53 54 55 55 54 56 56 53 51 52 53 54 54 54 54 54 53 52 52 51 50 51 51 51 51 52 52 52 51 50 49 50 51 52 53 54 54 54 54 54 54 54 53 52 52 52 53 53
57 58 58 57 56 57 57 57 57 56 56 55 54 54 54 54 55 57 57 56 57 57 55 54 55 55 55 56 56 56 56 55 54 54 53 52 53 52 53 54 54 54 54 54 53 52 52 52 53 54 54 54 54 54 55 56 56 56 55 54 53 53 54
55 56 56 56 56 56 56 56 57 56 56 57 56 56 56 55 55 57 58 57 57 55 55 56 56 56 56 56 56 56 55 54 54 54 53 53 54 54 55 55 55 55 55 55 55 55 54 54 54 54 54 55 55 55 56 57 58 58 57 56 55 55 56
54 54 54 55 55 55 56 56 56 56 56 56 56 56 56 55 55 56 57 57 56 54 55 56 56 56 56 56 55 55 54 53 53 53 54 54 54 55 55 55 55 54 55 56 56 54 53 52 52 52 52 53 53 55 56 58 59 59 58 57 57 57 57
53 53 53 54 54 54 54 55 55 55 55 55 55 55 55 55 55 55 55 56 55 54 55 55 55 56 56 55 55 54 54 53 53 53 54 54 54 55 55 54 54 54 54 54 53 50 49 49 50 51 51 51 51 52 54 56 58 59 59 59 59 59 59
53 53 53 53 53 53 53 53 54 54 54 55 54 54 54 54 54 53 53 54 54 54 55 55 55 55 55 54 54 54 54 54 53 53 53 53 54 54 53 53 52 51 50 49 48 49 50 51 52 52 53 53 53 52 53 53 54 56 58 59 59 59 59
53 53 53 53 53 53 53 53 53 53 53 53 53 53 53 54 53 52 53 53 53 53 54 54 54 54 54 54 53 53 54 54 53 53 53 52 53 52 51 51 50 49 49 50 51 53 54 54 53 53 53 54 54 54 54 54 54 55 56 57 58 59 59
53 53 53 53 53 53 53 53 53 53 53 52 52 52 53 53 52 52 52 52 52 52 53 53 53 53 53 53 53 53 53 53 52 52 51 51 50 50 49 50 50 48 50 53 53 53 53 52 51 51 51 52 53 53 53 54 55 56 57 58 60 61 61
51 51 52 52 53 53 52 52 53 53 52 52 52 52 53 53 52 52 52 52 52 52 52 52 52 52 52 52 52 52 51 51 51 50 49 49 48 48 48 49 49 49 51 52 52 51 50 49 49 49 49 50 52 53 54 55 56 58 59 60 62 63 64
49 49 49 49 50 51 51 51 52 51 51 52 52 52 52 53 53 52 52 52 52 51 51 51 51 51 51 51 50 50 50 50 49 49 48 47 47 47 48 49 50 50 51 51 50 50 49 49 48 48 50 52 54 55 56 56 57 58 59 60 62 64 65

ECMWFFLT1_500_spd_024.txt.gz
Wind_Speed
22 21 21 21 22 21 21 21 21 22 22 22 23 23 23 24 25 26 26 26 25 25 24 24 24 23 23 24 24 24 25 25 25 24 24 24 24 24 24 25 26 25 24 23 23 23 24 24 22 20 18 17 15 13 14 17 22 28 35 40 42 42 42
21 21 20 21 21 20 20 20 21 22 22 22 22 22 22 22 23 24 24 25 25 24 24 24 24 24 24 24 24 23 24 25 24 24 24 24 25 25 24 25 26 26 26 26 26 26 26 26 25 24 22 21 18 16 15 15 15 17 23 32 39 43 43
20 19 19 19 19 19 19 20 21 22 22 22 22 22 22 22 22 22 22 23 23 24 23 23 23 24 24 24 24 24 24 24 24 24 24 24 24 24 25 26 27 27 28 29 29 28 28 28 27 25 24 25 25 25 24 22 20 18 18 20 27 36 40
18 17 17 17 18 18 18 19 20 21 22 22 22 22 21 21 21 21 21 21 22 22 22 22 22 22 23 23 23 24 24 24 24 24 23 23 23 23 24 26 27 27 28 29 30 30 30 30 29 28 27 28 29 29 28 25 23 21 20 19 20 26 31
16 15 16 17 17 18 18 18 19 19 20 21 21 21 21 21 21 20 20 20 20 20 21 21 21 21 21 22 22 23 23 24 24 23 23 23 22 22 24 25 26 26 27 28 29 29 30 30 30 30 29 28 28 29 28 27 25 23 22 21 21 23 24
15 14 15 17 17 18 18 18 19 19 19 19 20 20 20 20 20 20 20 20 20 20 20 20 20 20 21 21 21 22 23 23 23 22 22 22 22 22 22 24 25 26 26 27 27 27 28 27 28 28 27 26 27 27 26 25 24 23 23 22 23 23 23
15 15 16 16 17 18 18 19 19 18 19 19 19 19 19 19 18 19 19 19 19 19 19 19 19 19 20 20 21 21 22 22 21 21 21 21 21 21 21 22 24 25 25 25 26 26 26 26 25 25 24 24 24 24 24 23 22 23 23 22 23 24 23
15 15 16 17 18 18 19 19 19 19 19 18 18 18 18 18 18 18 18 18 19 19 19 19 19 19 19 20 20 21 21 21 21 20 20 20 20 20 19 20 22 23 24 24 24 24 24 24 24 23 23 22 22 22 22 21 21 22 21 21 22 24 23
15 16 17 18 19 19 19 20 20 20 19 19 18 18 18 18 18 18 18 18 18 18 18 18 19 19 19 19 20 20 20 21 20 20 19 19 19 19 18 18 19 20 22 22 22 23 23 23 22 22 21 20 20 21 21 20 20 21 20 20 22 22 21
17 18 19 19 20 20 20 21 21 21 20 20 19 19 19 18 19 19 19 19 19 18 18 18 18 18 18 19 19 19 20 20 20 19 19 19 18 18 18 17 17 18 19 20 21 21 21 21 21 20 20 19 19 19 19 19 19 19 18 18 20 20 18
19 19 20 21 21 21 21 21 21 21 21 21 20 20 20 19 19 19 19 19 19 19 19 18 17 17 17 18 18 18 19 19 19 18 18 18 18 18 18 17 17 16 17 18 19 19 19 19 19 18 18 19 18 18 18 18 19 19 18 18 19 18 17
21 21 21 22 22 22 21 21 21 21 21 21 21 21 21 20 20 19 19 19 19 19 20 19 19 18 17 17 17 17 17 17 18 17 17 17 17 17 17 17 17 16 16 16 17 18 18 18 18 18 18 18 18 18 18 18 19 19 19 19 19 19 18
23 23 23 23 23 23 22 22 21 21 21 21 21 20 20 20 20 18 17 17 18 19 19 20 20 20 19 18 18 18 18 17 17 17 16 16 16 16 17 17 17 17 17 17 17 17 17 18 18 18 18 18 19 19 19 20 20 20 20 21 21 21 20
26 25 24 24 24 24 23 23 22 21 20 21 21 21 20 19 18 18 17 16 17 17 18 18 19 20 20 20 19 19 19 19 18 18 17 17 17 17 17 17 17 18 18 18 18 18 18 18 18 19 19 20 20 20 20 21 22 23 23 23 23 23 23
29 28 26 26 25 25 25 24 23 22 21 21 21 22 21 19 18 18 17 17 17 17 17 17 17 18 18 19 19 19 20 20 20 20 20 19 19 19 18 18 18 18 19 19 20 20 20 20 20 20 21 22 22 22 22 22 23 24 25 26 26 26 26
30 30 29 29 28 28 27 26 24 23 23 22 22 22 22 22 21 20 19 18 19 18 18 18 17 17 17 17 18 18 19 19 20 20 20 20 20 20 20 20 20 20 20 20 20 21 22 22 23 23 23 24 24 25 25 25 25 25 26 28 29 29 29
33 34 34 34 32 31 30 29 28 27 26 25 24 24 24 24 24 23 22 21 20 20 20 20 20 19 18 18 18 18 18 19 19 19 20 20 19 20 20 20 20 20 19 20 20 20 21 22 23 24 25 25 26 27 27 28 28 28 28 29 30 31 31
33 35 37 38 37 35 34 33 32 30 29 28 28 27 26 25 26 26 25 24 23 22 22 22 22 22 21 21 20 20 20 20 20 20 20 20 20 20 20 20 20 20 19 19 19 20 20 21 22 22 23 24 25 26 27 28 29 30 30 30 31 31 32
33 33 34 36 36 37 37 37 36 35 34 33 32 31 29 28 28 28 27 26 26 26 25 25 24 24 24 23 23 23 23 23 23 22 21 22 22 22 22 22 22 22 22 22 22 22 23 23 23 23 24 24 25 26 26 27 28 29 30 30 30 31 32
36 35 35 35 36 36 36 37 37 37 37 37 35 35 33 31 31 30 30 29 29 29 29 29 28 27 26 25 25 25 26 26 26 26 25 25 25 25 25 25 25 25 25 26 27 27 27 27 27 26 26 26 27 27 27 28 28 29 30 30 31 31 32
41 41 41 41 40 40 39 39 39 38 38 39 39 38 36 34 32 33 34 34 33 32 30 30 30 30 29 28 27 26 27 28 28 28 28 28 28 28 29 29 29 29 29 29 29 28 28 29 28 28 28 28 28 28 28 29 29 30 30 31 32 33 34
44 44 44 44 44 45 44 43 42 41 41 41 41 41 38 35 33 32 31 31 32 32 32 32 33 33 31 30 29 29 30 31 31 31 30 31 32 32 33 34 34 34 34 34 33 32 31 31 30 30 31 31 31 31 31 31 31 32 32 32 32 33 34
46 46 46 45 45 46 47 47 46 45 45 46 45 44 42 39 37 38 37 35 32 32 34 35 36 37 34 31 31 32 34 35 36 35 35 35 36 36 37 38 38 38 38 37 37 37 36 36 35 35 36 36 36 36 36 36 36 36 36 36 35 35 36
49 48 48 48 47 47 48 48 48 47 47 48 49 49 49 46 44 46 48 47 42 39 38 38 39 41 40 37 34 34 36 38 39 40 40 40 40 40 41 41 41 41 41 40 41 40 40 40 40 40 40 40 41 41 41 41 41 41 41 41 40 41 41
51 51 51 50 50 49 48 48 49 49 49 49 50 51 52 51 50 50 53 52 49 47 46 45 44 45 45 43 40 38 40 41 41 42 42 42 42 42 43 44 43 42 42 43 43 44 43 43 43 43 43 43 43 44 44 44 44 45 45 45 45 45 45
50 50 50 49 49 49 49 48 48 48 49 49 50 51 52 53 52 52 52 53 51 50 49 49 49 49 48 47 46 44 44 45 45 44 44 44 44 44 45 46 45 45 44 45 45 46 46 46 46 46 46 45 45 45 46 46 47 48 48 49 49 49 49
49 49 49 49 48 48 49 48 47 49 50 51 51 52 52 52 53 53 52 52 52 52 50 50 51 52 51 50 49 49 48 48 48 47 47 47 47 47 48 48 48 48 48 48 48 48 49 49 49 49 49 48 48 47 47 47 48 49 50 51 51 51 52
50 50 50 50 50 50 50 50 50 51 52 53 54 54 53 53 53 54 54 53 54 54 52 51 51 53 53 52 52 53 53 52 51 50 50 50 50 50 50 50 50 50 51 51 51 51 52 52 52 52 51 51 50 50 50 50 50 51 51 52 52 52 53
51 51 51 52 52 53 53 53 53 54 54 55 55 56 57 56 55 55 56 57 57 57 55 53 52 52 52 53 54 55 55 55 54 53 53 53 53 53 53 53 52 53 53 54 54 54 55 55 55 54 53 53 53 53 53 53 54 54 54 54 54 54 54
51 52 52 52 53 53 53 53 54 55 56 57 57 58 59 60 58 57 57 57 58 58 57 55 53 52 52 52 54 54 54 54 54 55 55 55 55 54 54 54 54 54 55 56 56 56 56 56 56 55 54 54 55 54 55 55 55 55 55 55 55 55 54
52 52 52 53 53 53 54 54 54 55 56 57 58 59 59 59 58 57 56 56 56 56 55 55 54 54 53 52 52 52 52 52 53 53 54 54 54 54 54 54 54 55 55 55 56 56 56 56 56 55 55 55 56 55 55 55 55 55 54 54 54 53 53
52 52 53 53 53 54 54 54 54 55 55 56 56 57 57 57 57 56 55 54 54 53 53 54 54 54 53 52 51 51 51 51 51 52 52 52 52 52 53 53 53 53 54 54 54 54 54 54 54 53 54 55 55 55 55 55 54 53 52 52 51 51 51
52 53 53 53 54 54 54 55 55 55 55 55 56 56 56 56 55 54 54 53 53 53 53 53 53 53 53 52 51 51 50 50 51 51 51 51 51 51 52 52 52 52 52 52 52 52 52 53 52 53 53 54 54 54 54 54 53 53 52 51 52 52 53
52 52 52 53 53 54 54 55 55 55 54 54 55 55 54 54 53 53 53 53 53 53 53 52 52 52 52 52 51 51 51 50 50 50 50 50 51 51 52 52 52 51 52 52 52 52 52 52 53 53 53 53 54 54 54 53 53 52 52 52 53 53 53
50 51 51 52 52 53 53 54 54 54 54 55 55 54 53 53 52 51 51 52 52 52 52 52 52 52 52 52 51 51 50 51 50 50 50 50 50 51 52 53 52 51 52 52 52 52 52 52 53 53 53 53 54 54 54 53 52 52 52 52 51 51 52
50 50 50 51 51 51 51 52 53 53 53 54 54 54 53 52 51 49 50 50 50 50 51 51 52 52 52 52 51 50 50 51 50 50 50 50 50 51 52 52 51 51 52 52 52 52 52 52 53 53 53 54 54 54 54 53 53 53 52 52 52 52 52
49 49 50 50 50 50 50 50 51 51 51 52 53 52 51 49 48 48 48 48 48 48 49 50 51 51 51 51 51 51 51 51 51 50 50 50 50 51 51 51 51 51 51 52 52 52 52 52 52 53 53 53 54 54 54 54 55 54 53 53 53 53 53

ECMWFFLT1_500_spd_027.txt.gz
Wind_Speed
17 17 18 17 17 17 17 17 18 18 18 18 18 18 18 18 18 18 18 18 19 19 19 20 20 20 21 22 22 22 21 21 21 21 21 21 20 20 20 21 21 21 21 22 22 21 20 20 19 19 18 18 18 15 14 15 17 19 22 26 32 36 39
18 18 19 18 18 18 17 17 18 18 18 18 18 18 18 18 18 18 18 18 18 19 19 19 20 20 21 22 22 23 22 22 22 22 22 22 21 21 21 21 22 22 22 22 23 23 22 22 21 20 20 21 21 19 18 16 15 15 15 17 21 26 31
19 19 19 19 18 18 17 17 17 17 18 18 18 18 18 18 18 18 18 18 18 18 19 19 19 19 20 21 22 22 22 21 22 22 22 22 21 21 21 22 22 22 23 23 24 24 24 24 24 24 23 23 22 22 21 20 20 20 19 17 16 18 22
19 20 19 19 18 18 17 16 17 17 17 18 18 18 17 17 17 17 18 18 18 18 18 18 19 19 19 19 20 21 21 21 21 21 21 21 21 21 21 22 22 23 24 24 25 25 25 26 26 26 25 25 25 25 24 23 24 25 23 20 19 19 20
20 20 20 19 19 18 17 16 16 17 17 17 17 17 17 17 16 17 17 17 17 17 17 17 17 17 17 18 18 19 19 19 19 19 19 19 19 20 21 21 22 23 24 25 25 25 26 26 27 27 27 26 27 27 26 27 27 26 25 23 21 21 21
20 20 20 19 19 18 17 16 15 16 16 16 17 17 17 17 16 16 16 16 16 16 16 16 16 16 16 16 16 16 16 16 16 16 17 16 16 17 18 19 21 22 24 24 25 25 25 26 26 26 26 27 27 27 27 27 27 27 25 24 22 21 21
20 19 20 20 20 18 16 15 15 15 15 15 16 16 16 16 16 16 15 15 15 15 16 16 15 15 15 15 15 14 14 14 14 14 14 14 14 15 16 17 18 20 22 23 24 24 24 24 24 24 25 25 25 25 25 25 26 27 25 23 22 22 22
20 18 19 19 19 18 16 15 14 14 15 15 15 15 15 15 15 15 15 15 15 15 15 15 15 15 15 14 14 13 13 13 13 13 13 13 13 13 14 14 15 17 19 20 21 21 21 22 22 22 22 23 23 23 23 23 24 26 24 23 22 21 22
19 18 18 18 17 18 16 15 15 15 15 16 16 15 15 15 14 14 14 15 15 15 15 15 15 16 15 15 14 13 12 12 12 12 12 12 12 12 13 13 13 14 15 17 18 18 18 18 19 19 19 19 20 20 20 21 22 24 23 22 21 21 21
19 18 17 17 16 16 16 16 15 16 16 16 17 16 16 16 15 14 14 14 15 15 16 16 16 16 16 16 15 14 13 12 11 11 11 11 11 11 12 12 13 13 13 14 15 16 16 15 15 16 16 16 16 17 18 18 19 20 21 21 20 19 19
19 19 18 17 16 15 16 17 16 16 18 17 17 17 17 16 15 15 15 14 14 15 15 16 16 16 16 17 16 15 14 13 12 11 11 11 11 11 11 12 12 12 12 13 13 14 14 14 13 13 13 13 14 15 15 16 16 17 18 19 18 17 16
20 20 20 18 17 16 16 17 17 18 18 18 18 18 17 17 16 15 15 14 15 15 15 16 16 16 16 17 17 16 15 14 13 12 12 12 11 12 12 12 12 12 12 12 13 13 13 13 12 12 12 12 12 14 14 15 15 15 16 17 17 16 15
21 22 22 21 19 18 17 18 18 19 19 19 19 18 18 18 17 16 14 13 14 14 15 15 15 16 16 17 17 17 17 17 16 15 14 13 12 12 12 12 13 13 13 13 13 14 14 14 14 13 12 12 12 13 15 15 16 16 16 17 17 17 16
22 24 25 23 21 19 18 19 20 20 21 21 20 19 19 18 18 17 16 14 14 14 14 15 15 16 16 16 17 17 18 18 18 18 17 15 14 13 13 13 13 14 14 14 14 15 15 15 16 16 16 15 15 15 15 16 17 17 18 18 18 18 18
27 27 27 25 22 20 20 20 21 21 22 21 21 20 21 20 19 19 19 17 17 16 16 15 16 16 16 17 16 16 16 17 18 18 18 17 16 15 15 15 14 15 15 15 16 16 16 16 17 17 17 18 17 17 17 17 18 19 19 20 20 21 20
32 30 29 27 25 23 23 22 22 22 22 22 22 22 22 21 21 22 22 22 21 20 19 17 16 17 18 18 18 17 16 16 17 17 17 17 16 16 15 15 15 16 16 16 17 17 18 18 18 19 19 19 19 19 19 19 19 20 21 22 22 23 23
35 34 32 30 29 29 28 26 26 26 26 26 25 24 23 23 25 25 24 24 24 23 22 21 19 19 19 19 20 19 18 17 17 17 16 16 16 16 16 15 16 16 16 16 17 18 18 19 19 19 20 20 20 20 20 20 20 20 21 22 22 23 24
34 34 32 31 32 33 32 31 30 29 30 30 29 28 28 28 28 28 27 26 26 25 25 24 23 22 21 21 22 22 21 20 19 18 18 17 17 18 18 17 17 17 17 17 17 18 18 18 18 19 19 19 19 20 20 20 20 20 19 20 21 22 22
33 33 33 33 33 33 34 33 31 30 30 30 31 32 33 32 31 31 31 30 28 28 29 27 26 25 25 25 25 25 25 24 23 22 20 19 19 20 20 19 19 19 19 20 20 19 19 19 20 20 20 21 21 21 21 21 21 21 20 20 21 22 23
38 37 36 36 35 35 35 34 33 31 30 29 30 32 33 33 31 30 31 32 32 32 31 29 28 28 28 28 28 28 28 27 26 25 23 23 23 23 23 23 23 22 22 22 22 22 22 22 22 23 23 24 24 24 24 24 23 23 22 22 22 23 24
42 41 40 40 39 39 38 37 37 37 35 34 34 35 35 35 35 33 32 33 33 33 31 31 31 31 31 31 30 29 29 29 29 28 27 26 25 25 26 26 26 25 26 26 26 25 25 25 25 26 26 26 26 26 26 26 26 25 25 25 25 25 25
45 45 44 44 43 43 43 42 42 42 41 41 40 40 40 40 40 39 38 36 35 35 34 33 32 33 34 34 33 31 31 31 31 31 31 30 28 28 28 29 28 28 29 29 29 29 29 29 30 30 31 31 31 31 31 30 30 30 29 29 29 30 30
49 49 49 48 47 47 47 47 46 46 46 45 44 44 44 43 43 43 42 41 40 39 38 37 35 33 32 32 33 33 32 33 33 33 33 33 32 33 33 32 32 32 33 34 34 34 34 34 34 35 36 37 37 37 37 37 36 35 34 34 34 35 35
51 51 51 51 51 51 51 51 50 49 48 48 47 47 46 46 46 45 45 45 44 43 43 42 40 37 36 36 37 37 36 36 36 35 35 35 35 35 36 37 37 37 38 38 39 39 39 39 40 40 40 41 42 43 43 43 42 41 40 39 38 39 39
52 53 53 53 54 54 54 53 53 52 50 49 48 48 48 47 47 47 48 48 48 47 47 46 46 45 45 45 46 45 44 43 42 42 42 41 40 38 38 39 40 41 42 42 42 43 43 43 43 43 43 43 44 45 46 47 46 46 45 44 43 42 43
51 53 53 54 55 56 56 56 55 55 53 52 50 50 50 49 49 49 49 49 49 49 48 48 48 48 48 48 48 48 47 46 47 48 48 48 46 43 41 42 44 45 45 45 45 45 45 45 45 45 45 45 46 47 48 49 49 49 49 48 47 47 47
48 50 51 52 53 53 54 54 55 55 55 54 54 53 53 52 52 52 51 50 50 49 48 48 48 48 49 49 49 49 47 46 46 47 49 49 48 46 45 46 47 48 48 48 47 47 47 47 48 48 48 48 49 49 50 50 51 51 51 51 51 50 51
48 49 50 51 51 51 51 52 52 52 53 54 54 54 53 53 53 53 53 53 52 51 50 49 48 49 50 50 50 50 50 49 48 47 47 48 48 47 48 48 49 49 49 50 50 50 51 51 51 51 51 51 51 51 51 52 52 52 52 53 53 54 54
50 50 50 51 51 51 51 51 51 51 51 52 52 52 52 51 52 53 53 53 52 51 51 51 50 51 51 51 51 51 51 51 50 49 48 48 48 48 49 49 50 50 50 51 51 52 53 54 54 54 54 54 54 54 54 54 54 54 54 55 55 56 57
52 51 51 50 51 51 51 51 51 51 51 51 52 52 52 51 52 52 52 52 51 51 52 54 54 54 54 53 53 53 52 51 51 51 50 50 50 49 49 50 50 50 51 51 52 52 53 54 55 55 56 56 56 56 57 57 57 57 57 57 58 58 59
51 49 49 50 50 50 50 50 51 51 51 51 51 51 52 52 52 51 51 52 51 52 52 53 55 55 55 55 55 54 52 51 50 50 50 50 51 50 50 50 50 50 50 50 51 52 53 53 54 55 55 55 56 57 57 58 58 58 58 59 59 59 60
51 50 50 50 50 50 50 50 51 51 51 51 51 51 52 52 51 51 51 51 52 52 52 53 53 54 53 53 52 52 51 50 50 50 49 49 50 50 50 49 49 49 49 49 50 51 52 52 53 53 54 54 55 55 56 57 57 57 57 57 58 58 59
53 52 51 50 50 49 50 50 51 51 52 52 53 53 53 53 52 52 51 51 51 52 52 53 53 53 53 52 51 50 50 50 49 49 49 49 49 49 49 49 49 49 49 49 49 50 51 51 52 52 53 53 54 54 55 55 55 55 55 55 56 56 57
53 52 51 50 49 49 49 49 49 50 51 52 53 52 53 53 53 53 52 52 52 52 52 52 53 53 53 53 52 51 50 49 49 49 49 49 49 49 49 48 48 49 49 49 50 50 51 51 51 52 52 53 54 54 54 54 54 54 55 55 55 55 56
50 50 49 49 48 48 48 48 47 48 49 50 50 50 50 51 51 52 52 52 52 52 51 52 52 52 52 52 52 51 50 50 50 50 50 50 50 50 49 49 49 49 49 50 51 51 51 51 51 52 52 53 53 53 54 54 54 54 54 55 55 55 56
50 50 49 48 48 47 47 47 46 47 48 47 47 47 48 48 49 49 50 50 51 50 50 49 49 49 50 50 50 50 50 50 50 50 50 50 50 50 50 49 49 50 50 51 51 51 51 51 52 52 52 53 53 53 54 54 54 54 55 55 55 56 57
52 51 50 49 48 47 46 46 46 46 47 47 46 46 46 46 46 47 47 48 48 48 47 46 46 46 46 46 46 46 47 48 48 49 49 50 50 50 50 50 50 51 51 52 52 52 51 52 52 52 53 53 53 54 54 54 55 55 55 56 56 57 57

ECMWFFLT1_500_spd_030.txt.gz
Wind_Speed
13 14 13 13 12 12 12 13 13 13 12 12 12 11 11 12 13 13 13 13 13 13 14 15 15 16 17 18 18 19 20 21 21 21 21 21 21 20 21 21 20 20 20 20 20 20 20 19 18 18 17 16 17 17 17 16 15 15 17 20 24 30 37
13 15 14 14 14 14 14 14 14 13 12 12 12 11 11 12 12 13 13 13 13 13 14 15 16 17 17 18 19 20 20 21 22 22 22 22 22 22 22 22 20 20 21 21 20 20 19 18 18 17 17 17 17 18 19 19 17 15 14 17 20 23 27
13 15 15 15 15 15 15 15 15 14 13 11 11 11 11 12 12 12 12 13 13 13 14 15 16 17 17 18 19 20 21 21 22 22 22 23 22 22 22 21 20 21 22 22 22 22 22 21 20 19 19 19 19 19 21 21 20 18 16 16 18 18 18
13 14 16 16 16 16 16 16 16 14 13 11 10 10 11 11 11 11 11 12 13 13 13 14 15 16 17 18 19 19 20 21 21 21 21 22 22 21 21 20 21 21 21 22 23 24 25 25 24 23 23 23 23 24 24 23 22 20 19 19 20 19 18
13 15 17 17 17 17 16 16 16 15 12 11 10 10 10 10 10 10 10 11 11 12 13 13 14 15 16 17 18 18 19 20 20 20 20 20 20 20 20 19 20 21 21 22 23 24 25 25 25 25 25 25 26 26 26 25 24 23 22 22 22 22 21
15 15 17 18 18 17 17 16 16 14 12 10 10 10 10 10 10 10 10 10 10 11 12 12 13 14 15 16 17 17 18 19 19 18 18 18 19 18 18 18 19 20 21 22 23 24 25 25 25 25 25 26 26 26 26 26 26 25 24 24 24 23 23
19 15 17 18 18 18 18 17 16 14 12 10 10 11 11 11 11 11 10 10 10 10 10 11 12 12 13 14 15 16 17 18 18 18 17 17 17 17 16 16 17 18 19 20 21 22 23 23 24 24 24 24 25 26 26 25 25 25 24 24 23 23 23
24 17 17 17 17 17 18 17 16 14 12 10 10 11 11 12 12 12 12 12 11 10 10 10 11 11 12 13 13 14 15 16 17 17 17 17 17 16 16 15 15 16 17 18 19 20 20 20 20 21 21 22 22 23 23 23 23 23 22 22 22 22 22
25 20 18 17 16 17 18 18 17 15 13 11 10 11 11 11 12 12 13 13 13 12 11 11 11 11 12 12 13 14 14 15 16 17 17 17 17 16 16 16 15 16 16 16 17 17 17 17 17 17 18 18 19 20 21 20 19 19 19 19 19 19 20
21 21 20 18 16 17 18 19 18 16 14 12 12 11 12 12 12 12 12 13 13 14 13 13 12 12 12 13 13 14 14 15 16 16 17 17 17 17 16 16 16 16 16 16 16 16 15 15 15 15 15 16 17 17 18 18 17 16 16 16 17 17 18
20 22 21 18 17 18 18 19 20 18 16 14 13 13 13 13 13 13 13 13 13 14 14 14 14 13 13 13 14 14 15 15 16 16 16 17 17 16 16 16 16 16 16 16 16 16 15 14 14 14 14 14 15 15 15 15 15 14 13 14 14 14 15
21 23 23 19 18 19 19 19 19 20 19 16 15 15 15 15 15 15 15 15 15 14 14 14 14 14 14 14 14 14 15 16 16 16 16 16 17 16 16 16 16 16 16 16 16 16 15 15 14 14 14 15 15 15 15 15 15 14 13 12 12 12 13
21 24 24 21 19 20 20 19 18 18 19 19 18 17 18 18 17 17 17 16 16 15 14 13 13 13 13 13 14 14 15 15 16 17 17 17 17 17 17 17 16 16 16 16 16 16 16 16 15 15 15 15 16 16 16 16 16 15 15 14 13 13 14
20 22 23 20 18 17 18 18 17 16 17 18 19 20 20 20 20 19 19 18 17 16 14 13 13 13 13 14 14 14 14 14 15 16 17 18 18 18 18 17 17 17 17 17 17 17 17 17 16 16 16 16 16 16 17 17 17 17 16 16 15 15 16
22 22 22 22 21 19 19 19 19 19 19 19 20 21 22 21 20 20 20 21 20 18 16 15 14 14 14 14 15 15 15 15 15 15 16 17 18 19 19 19 19 19 18 18 18 18 17 17 17 17 17 17 17 17 17 17 18 18 18 18 17 17 17
24 25 24 25 27 25 24 23 22 22 22 21 21 22 23 22 21 21 21 22 22 21 20 19 18 17 17 16 17 17 17 17 17 16 16 16 17 17 18 19 20 20 20 20 20 20 19 19 19 19 19 19 19 19 19 19 19 19 19 20 20 20 20
26 28 26 25 27 26 25 25 23 23 23 23 23 23 24 25 26 25 25 25 26 25 24 23 21 20 20 19 20 20 20 20 19 18 18 17 17 17 17 18 19 20 20 21 21 21 21 21 21 21 21 21 21 21 21 21 21 21 21 22 22 22 22
22 22 22 22 23 25 25 25 24 23 24 24 24 25 25 26 28 29 28 29 29 29 28 27 26 25 24 23 23 23 23 23 22 22 21 20 20 19 19 19 19 20 20 20 20 20 20 20 21 21 21 22 22 22 22 21 21 21 21 22 22 23 23
22 22 25 27 27 28 28 28 27 27 27 26 25 26 27 27 27 28 29 31 31 31 31 29 28 28 29 28 28 28 27 27 26 25 24 23 22 22 22 21 21 22 21 21 21 21 21 21 21 21 21 22 22 22 22 21 21 21 21 22 22 23 23
29 31 34 35 33 33 32 32 33 33 32 30 28 28 28 28 28 27 27 28 29 29 29 27 26 27 29 31 32 32 31 31 30 28 27 26 25 25 25 25 25 25 24 24 23 23 23 23 23 23 23 23 23 23 23 23 23 23 23 23 24 24 24
35 35 36 36 36 36 36 37 37 37 36 34 32 32 31 31 31 31 30 31 32 32 31 30 29 29 30 30 31 31 31 33 33 31 30 29 28 28 28 28 28 28 27 27 27 27 27 26 26 26 25 26 26 26 26 26 26 25 25 26 26 25 26
41 41 40 39 40 40 40 40 40 40 39 38 37 37 36 36 36 36 36 37 38 38 37 36 35 34 33 33 33 32 31 33 35 35 34 33 32 31 31 31 31 30 30 30 30 30 30 30 29 29 29 29 30 30 30 30 30 29 29 29 29 29 29
43 44 45 45 44 43 43 43 43 42 42 42 41 41 40 40 40 41 41 41 41 41 41 40 39 38 37 36 36 35 33 33 34 35 35 35 35 34 34 34 34 33 32 33 33 34 34 33 33 33 33 33 34 34 34 35 35 34 34 33 33 33 34
42 44 45 47 48 47 46 46 45 45 45 44 44 44 44 44 44 44 44 44 45 45 45 44 43 42 40 39 38 38 37 36 36 36 36 36 36 36 36 36 36 35 35 34 35 36 37 37 37 37 37 38 38 38 39 39 40 39 39 38 38 39 39
42 42 42 44 46 48 48 47 47 47 46 46 46 46 46 46 46 46 47 47 47 47 47 46 46 44 43 43 42 41 41 40 40 40 40 40 41 42 42 41 41 41 41 40 40 41 41 41 41 41 41 42 42 43 44 44 44 44 44 43 43 44 44
43 43 43 43 43 45 46 46 46 45 45 45 45 46 47 47 47 48 48 48 48 48 48 47 46 45 45 45 45 45 44 43 43 43 44 44 46 47 46 45 44 45 45 46 47 48 48 49 49 48 47 48 48 49 49 49 49 49 49 48 48 48 48
44 44 44 44 43 42 43 43 43 43 43 44 44 45 46 46 47 48 48 48 48 47 47 47 46 46 46 46 46 47 46 46 46 46 46 47 47 48 47 46 45 45 46 47 48 49 50 51 51 51 51 52 53 53 53 52 53 53 53 52 51 51 52
46 45 44 44 43 42 42 42 43 45 46 47 48 47 48 48 48 48 47 47 46 46 46 46 46 46 46 46 47 47 47 47 47 48 48 48 48 48 47 47 46 46 47 47 48 49 50 51 51 52 52 53 53 54 54 55 55 55 55 55 55 55 56
47 46 45 45 45 45 45 46 48 49 50 50 50 50 51 51 50 50 49 47 46 46 45 46 46 46 46 46 47 47 47 47 47 47 48 48 48 48 48 48 48 49 48 47 46 47 49 50 51 51 52 53 54 54 56 56 57 57 57 58 58 58 58
48 48 48 47 47 48 49 50 51 51 52 52 52 53 54 53 52 51 50 49 48 47 47 46 46 46 46 47 47 48 48 48 47 47 47 48 48 49 49 49 50 51 50 49 48 48 48 49 49 50 51 53 54 55 56 57 58 58 59 59 60 60 60
50 50 49 49 49 50 51 52 52 53 53 54 54 54 53 52 52 51 50 50 50 49 49 48 48 48 48 48 48 48 48 49 48 48 48 48 48 49 49 49 50 50 50 50 49 49 48 48 49 50 51 52 52 53 54 56 57 59 60 60 61 61 62
52 51 51 51 52 52 53 54 54 55 54 54 53 52 51 51 51 52 51 51 51 51 51 51 50 50 50 50 49 49 49 49 49 49 49 49 49 49 49 49 50 50 50 50 50 50 50 50 50 50 51 51 51 52 53 54 56 57 58 59 59 60 61
55 56 57 57 57 57 57 56 55 54 53 53 52 52 52 52 52 52 52 52 52 52 51 51 52 51 51 51 51 50 50 50 50 50 50 49 49 50 50 50 50 50 50 50 50 50 51 51 51 52 52 51 52 52 53 54 55 55 56 57 57 58 59
59 59 59 59 58 58 57 56 55 54 54 53 52 52 53 52 52 51 51 51 51 51 51 51 51 51 51 51 51 51 51 51 50 50 50 50 50 50 51 51 51 51 51 51 52 52 52 52 53 53 53 52 53 53 53 54 55 56 56 57 57 58 58
62 61 59 57 57 56 56 55 55 55 54 52 51 50 50 49 49 50 50 50 50 50 50 49 49 49 50 49 49 50 50 50 50 50 50 50 50 50 51 51 52 52 53 53 53 53 53 53 53 53 53 53 54 54 54 55 56 57 57 57 58 58 59
62 61 59 59 58 57 56 55 54 53 52 50 49 48 47 47 48 48 48 48 48 48 48 48 48 48 49 49 49 48 48 48 48 48 48 48 48 48 49 50 51 52 53 53 53 53 53 53 53 53 54 54 54 55 55 56 57 57 58 58 58 59 59
60 60 59 59 58 56 55 54 53 52 51 49 48 47 47 47 47 48 48 47 47 47 47 47 48 48 48 48 48 48 48 47 47 47 46 46 45 45 46 46 47 48 49 49 49 50 51 52 52 53 53 53 54 54 54 55 56 57 57 58 59 59 59

ECMWFFLT1_500_spd_033.txt.gz
Wind_Speed
15 16 19 20 19 18 17 16 15 14 13 13 13 13 12 12 12 12 13 13 14 14 15 15 16 17 18 19 19 20 21 21 22 22 22 22 23 23 23 23 22 22 22 23 22 22 21 22 21 21 20 19 19 18 18 17 17 18 18 18 19 17 16
14 14 18 22 22 21 19 17 15 14 12 11 12 12 12 11 12 12 12 12 13 13 14 14 15 15 16 17 18 19 20 21 21 22 23 23 24 24 24 24 23 23 23 23 23 23 22 22 22 22 22 21 20 19 19 19 18 17 18 17 15 14 14
13 14 18 23 25 24 22 19 16 14 12 11 11 11 10 10 11 11 11 12 12 13 13 14 15 15 16 17 18 19 20 21 22 23 24 24 24 24 24 25 24 24 24 23 24 24 24 24 23 23 22 20 19 19 19 20 20 20 20 18 15 14 15
17 19 20 23 25 25 24 21 17 14 12 11 11 10 10 9 9 10 10 11 12 12 13 13 14 15 16 17 18 19 20 21 22 23 24 24 24 24 25 25 25 25 24 23 24 25 25 26 26 25 24 22 20 20 20 20 20 21 21 19 18 18 18
18 19 17 19 23 24 24 22 19 16 13 11 11 11 10 9 9 9 10 11 12 12 12 13 13 14 15 16 17 18 19 20 21 22 22 23 23 23 23 24 25 24 24 24 24 24 24 25 26 27 27 26 25 24 24 24 24 24 24 23 23 22 23
19 18 16 19 23 23 23 22 20 17 14 12 11 12 11 10 9 9 9 10 11 12 12 12 12 13 14 15 16 17 18 19 20 21 21 21 21 22 22 23 23 24 24 25 25 25 25 25 26 26 27 27 27 26 27 28 28 28 28 27 26 26 26
23 22 19 20 23 22 21 21 19 17 15 13 12 12 12 11 10 9 9 9 10 11 12 12 12 12 12 13 14 15 17 18 19 19 20 20 20 20 21 21 22 22 23 23 24 26 26 27 27 27 27 27 27 26 26 27 28 28 28 27 27 27 27
24 23 20 20 22 21 20 20 19 18 16 14 13 13 13 12 11 10 10 10 10 11 11 12 13 13 13 12 12 13 14 15 16 17 18 19 19 20 20 21 21 22 22 23 24 25 26 27 27 27 27 27 27 26 25 25 26 27 27 26 26 27 27
23 21 17 18 20 20 19 20 19 18 17 15 14 14 14 14 13 12 11 11 11 11 12 12 12 13 13 13 13 13 13 13 14 15 16 17 17 18 19 20 20 21 21 22 23 25 25 26 26 26 26 26 26 25 24 23 24 25 25 25 25 25 25
20 19 16 15 18 19 19 20 19 18 17 15 14 14 14 15 15 14 13 12 12 12 12 12 13 13 13 13 14 14 14 14 14 14 14 14 15 16 17 18 19 19 20 21 22 23 24 25 25 25 25 25 25 24 23 22 22 23 24 24 23 23 23
17 17 15 13 16 17 18 19 19 18 17 16 15 15 15 16 16 16 15 14 13 13 12 12 13 13 13 14 14 14 15 15 15 14 14 14 14 15 16 16 17 18 18 19 20 21 22 22 23 23 23 23 23 23 22 21 20 21 22 22 22 22 22
15 16 16 15 16 19 20 20 20 20 18 17 17 16 17 17 17 16 16 15 14 13 12 12 12 13 13 14 14 14 14 14 15 15 15 15 14 14 15 15 16 17 17 18 18 19 20 20 21 21 21 21 21 21 20 20 19 19 19 20 20 20 20
15 15 16 16 16 19 22 23 22 20 18 18 18 19 18 18 17 16 16 15 14 13 12 11 11 11 12 12 12 13 13 13 14 14 15 15 15 15 15 16 16 17 17 17 18 18 18 18 19 19 19 19 19 19 19 19 18 17 17 18 18 19 18
15 15 16 17 17 19 21 22 21 19 17 17 19 19 17 16 14 14 14 14 14 13 12 11 11 11 11 11 12 12 13 14 14 14 15 15 16 16 16 17 17 17 18 18 18 18 18 18 18 18 18 19 19 19 18 18 18 17 17 17 17 18 18
19 19 18 18 19 20 20 19 19 18 18 20 20 18 16 14 14 14 14 14 13 13 12 12 12 12 12 12 13 13 14 15 16 16 16 17 17 17 17 18 18 18 19 19 19 19 19 19 19 19 19 19 19 19 19 19 19 19 18 18 18 18 19
21 21 20 19 20 21 21 20 20 22 23 23 23 21 18 17 16 16 16 16 15 15 16 15 15 15 15 15 15 15 16 16 17 17 18 19 19 19 19 19 19 19 19 20 20 20 20 21 20 20 20 20 21 21 20 20 20 20 20 20 20 20 20
23 22 19 18 21 23 23 22 22 23 23 23 23 23 22 21 20 20 21 21 20 20 21 20 19 19 19 19 18 19 19 19 19 19 19 20 20 20 20 20 21 21 21 21 21 21 21 22 23 22 22 22 22 22 22 22 22 21 21 21 21 21 22
22 22 22 21 20 21 21 22 20 19 21 23 24 25 25 26 25 24 23 23 23 23 24 24 24 23 23 23 22 23 22 22 21 21 21 21 22 22 22 23 23 23 23 23 22 22 22 22 23 24 24 24 24 24 24 24 24 23 23 23 23 23 23
21 20 21 21 17 15 17 19 20 22 24 24 24 25 25 26 25 24 23 24 24 24 24 24 24 24 24 24 23 22 22 23 23 23 22 21 22 23 24 25 25 25 25 25 25 24 24 24 24 24 24 24 25 25 25 25 25 24 24 24 24 23 23
19 12 12 16 16 17 22 26 27 27 26 23 23 23 23 24 24 24 22 22 23 23 23 24 24 24 25 25 24 24 24 25 26 26 25 23 23 23 24 25 26 26 26 27 27 27 27 27 27 26 25 25 25 26 26 26 26 25 25 25 25 24 24
22 19 20 23 25 27 30 31 30 28 27 26 25 25 27 28 29 28 25 23 24 24 24 25 27 27 28 29 29 29 29 29 30 30 30 29 28 27 27 26 27 28 28 28 29 30 30 31 31 30 29 29 28 28 28 28 28 28 28 27 27 27 27
28 28 29 31 32 32 32 32 31 30 30 29 27 28 30 31 31 31 30 30 31 29 28 28 30 31 31 32 32 32 33 32 32 33 33 32 31 32 32 30 29 30 31 31 31 32 32 33 33 33 32 32 32 31 31 31 31 31 31 31 31 30 30
33 32 31 31 31 31 32 33 33 32 31 30 29 29 29 28 28 29 32 34 36 34 32 33 33 33 34 34 34 34 35 35 34 34 35 34 32 33 35 35 35 34 34 34 34 33 34 35 36 36 35 35 35 35 35 34 34 34 34 34 34 35 34
39 37 35 33 31 32 34 36 35 33 32 32 32 32 32 32 32 35 38 40 39 36 35 35 34 35 35 36 36 37 37 37 37 36 36 36 35 34 35 37 39 39 39 39 38 37 36 36 37 38 38 37 36 37 37 37 37 38 38 38 38 39 38
41 40 39 38 36 37 39 38 36 35 35 34 34 35 37 39 39 41 42 41 38 36 35 35 35 35 36 37 38 39 39 40 39 39 38 38 38 37 37 38 40 41 42 42 43 43 42 40 40 40 40 39 39 40 40 39 40 41 41 40 40 41 41
41 42 42 42 42 41 40 38 37 37 37 37 37 37 38 39 40 39 38 37 36 36 36 36 36 36 37 38 39 39 40 41 41 41 40 40 40 40 41 42 43 43 44 45 46 47 47 47 46 46 46 46 46 47 47 47 48 48 47 47 47 47 48
43 44 44 44 43 42 40 39 38 38 39 40 41 40 39 39 38 37 36 36 37 38 38 39 39 39 40 40 41 41 41 41 41 42 42 41 42 43 43 44 45 46 46 47 48 49 50 50 51 52 52 52 52 52 52 53 53 53 54 54 54 55 55
45 45 44 43 42 41 40 40 40 40 41 42 43 42 41 40 39 39 39 40 41 41 42 42 42 43 44 44 44 43 43 42 42 42 42 43 43 44 45 45 46 47 48 49 51 52 52 53 54 55 55 55 54 54 53 53 53 54 55 55 55 56 57
46 45 45 44 44 43 43 43 44 43 43 43 43 43 42 42 42 42 43 44 44 44 45 45 46 47 48 47 47 46 45 45 45 44 44 44 44 44 45 45 46 47 48 49 50 52 53 54 55 55 55 54 54 54 54 53 53 54 55 55 56 56 57
48 48 48 48 48 49 49 49 48 47 46 45 44 44 44 45 45 45 46 46 46 46 47 48 49 50 50 50 49 48 47 47 47 46 46 46 45 45 45 46 46 47 47 48 49 50 50 51 52 53 53 53 54 54 54 54 54 54 55 55 56 57 58
49 49 50 51 52 53 53 52 51 49 48 47 47 46 46 46 46 46 47 47 48 48 49 51 52 52 51 50 49 49 49 48 48 48 47 47 47 47 47 47 47 48 48 48 49 49 50 51 51 52 51 52 52 53 53 53 53 53 54 55 56 57 58
48 48 48 49 51 52 52 51 50 49 48 49 49 49 48 48 48 48 49 50 52 53 53 53 52 52 51 51 51 51 50 50 49 49 49 48 48 48 48 48 48 49 49 49 50 50 50 51 52 52 52 52 52 52 52 52 52 53 53 54 55 56 57
47 46 46 47 48 49 50 50 50 49 49 50 50 51 51 51 52 53 53 54 54 54 53 53 52 52 52 52 52 52 51 51 50 49 49 49 48 48 48 48 48 49 49 49 49 50 50 51 51 52 52 53 53 53 53 53 54 54 55 55 56 56 57
46 43 43 44 46 47 49 51 51 51 51 52 53 54 55 55 56 55 54 53 53 52 52 52 52 51 51 52 51 51 50 50 49 49 49 48 48 48 47 47 47 48 48 48 48 48 49 50 50 51 52 52 52 53 54 54 55 56 56 57 57 58 58
49 47 47 49 50 51 51 52 53 54 55 56 57 58 58 58 58 56 54 53 53 52 51 50 50 49 49 49 49 49 49 49 49 48 48 48 47 47 47 47 47 47 47 47 48 48 49 49 49 49 50 51 51 52 53 54 55 56 57 58 58 59 59
59 57 57 58 58 59 58 57 57 58 59 61 62 62 62 61 59 56 54 53 51 50 49 48 47 47 47 47 48 48 48 48 48 48 47 48 48 48 48 48 47 47 47 47 47 48 48 48 48 48 48 49 49 50 51 52 53 54 55 56 57 58 59
65 65 65 66 66 66 67 66 65 66 67 67 67 66 64 61 58 55 53 51 50 48 48 47 47 48 48 48 48 48 48 48 48 48 47 47 47 47 48 48 48 48 48 47 47 47 47 47 47 47 47 47 47 48 48 49 49 50 51 51 52 53 54

ECMWFFLT1_500_spd_036.txt.gz
Wind_Speed
19 17 14 14 13 11 9 9 12 16 19 20 19 18 17 17 17 18 18 19 19 19 19 19 19 20 20 21 22 23 23 24 25 25 25 25 24 23 23 23 22 22 22 22 21 21 22 22 21 20 21 21 21 21 21 20 20 20 20 20 21 22 22
18 18 15 13 13 14 15 14 12 14 17 19 20 19 18 17 17 18 19 19 19 19 19 19 19 19 19 19 20 20 21 22 23 23 23 23 23 23 23 24 23 22 22 22 22 22 22 23 23 22 21 21 22 22 22 22 21 20 20 20 20 20 20
16 16 15 14 15 18 20 18 12 11 14 17 18 19 18 18 17 18 19 19 20 20 20 19 19 19 19 19 19 19 20 21 22 22 22 22 22 22 23 24 24 24 24 23 24 24 23 24 24 24 24 22 22 23 23 23 23 23 22 22 22 20 18
14 14 15 15 17 19 19 16 11 11 13 16 17 18 18 17 17 18 18 19 20 20 20 20 19 19 19 19 19 19 19 20 20 21 21 21 22 21 22 22 23 24 24 25 25 25 24 25 25 25 25 24 24 24 24 24 24 24 24 24 24 23 22
15 15 16 17 17 17 17 16 14 13 14 15 16 18 18 17 16 17 17 18 18 18 19 19 18 18 18 19 18 18 18 19 19 20 20 20 21 21 21 21 22 23 24 25 25 24 23 24 25 25 25 26 27 27 26 25 25 24 23 23 23 24 25
17 18 19 19 19 19 19 19 16 14 14 15 16 17 17 16 15 16 16 17 17 16 16 16 16 17 17 17 18 18 18 19 19 18 18 18 18 19 19 19 20 21 23 24 24 24 24 24 24 25 26 27 27 27 26 27 27 27 26 25 25 26 26
19 19 19 20 21 20 19 19 16 15 15 15 15 16 16 15 14 14 15 15 16 15 15 15 15 15 15 16 16 17 17 18 18 18 18 17 17 16 16 17 18 19 21 22 23 24 25 25 25 26 27 27 27 26 25 26 28 29 30 29 29 30 30
20 18 18 20 22 20 18 17 16 15 15 15 15 16 16 15 14 14 14 14 14 14 14 14 14 14 15 15 15 15 16 16 17 17 17 17 17 16 16 15 16 17 18 20 21 22 23 24 25 26 27 28 29 29 28 28 28 29 30 31 31 31 32
21 20 20 21 22 19 16 17 17 15 14 14 14 15 15 15 15 14 14 14 14 14 14 14 14 15 15 15 15 15 15 15 15 16 16 16 16 15 15 15 15 16 16 17 18 20 21 22 23 24 24 26 27 28 28 28 28 28 29 30 30 30 31
21 21 22 21 20 17 16 20 20 16 14 14 14 14 15 15 15 15 15 14 14 14 14 14 15 15 15 16 16 16 16 16 16 15 15 15 15 14 14 14 14 14 15 16 16 17 18 19 20 21 21 22 23 24 25 25 25 26 26 27 28 29 29
14 15 16 16 16 15 17 22 20 15 14 14 14 15 15 16 15 15 15 15 15 15 15 15 15 15 15 16 16 17 17 17 17 16 16 16 15 15 14 14 14 13 14 14 15 16 16 17 18 19 19 19 20 20 20 21 21 22 23 23 24 25 26
11 11 12 12 13 14 16 19 18 16 16 15 15 15 14 14 15 15 15 15 15 15 15 14 14 14 15 15 16 16 16 16 16 16 16 16 15 15 15 14 14 14 14 14 14 15 15 16 17 18 18 18 18 18 18 18 18 18 19 20 20 21 22
11 11 10 11 12 12 14 17 18 18 17 17 17 16 13 13 13 14 14 14 15 15 15 14 13 13 13 14 14 14 14 13 13 13 13 13 14 14 14 14 14 14 14 15 15 15 16 16 17 17 17 18 18 18 17 17 16 16 16 17 17 18 18
10 10 11 12 12 12 14 17 19 19 17 17 17 16 14 13 14 14 14 14 14 14 14 14 13 13 12 12 13 12 12 12 11 11 11 12 13 14 14 14 14 14 14 14 15 16 16 17 18 18 18 18 18 18 18 18 17 16 16 17 17 17 17
12 12 13 14 15 16 16 18 20 20 18 16 16 16 17 17 17 16 16 14 13 13 13 13 13 12 12 12 12 13 13 12 12 11 11 11 12 13 14 15 16 16 15 15 15 15 16 17 18 18 19 19 19 19 19 19 19 18 18 18 18 18 18
14 15 15 14 15 17 17 18 21 21 19 18 17 18 20 20 20 19 18 16 14 13 13 14 14 14 14 13 14 14 15 14 14 13 13 13 13 13 13 14 15 16 17 17 17 17 17 18 18 19 20 20 20 21 21 21 21 20 20 19 20 20 20
16 17 16 15 15 16 17 18 20 21 20 19 19 20 21 21 20 19 19 18 17 17 18 18 19 19 19 18 17 17 17 17 16 16 16 16 16 16 16 16 16 17 18 18 19 19 19 19 19 19 20 21 22 22 23 23 23 23 23 22 22 22 22
16 17 17 16 17 18 19 19 19 20 20 20 19 19 20 20 20 20 20 20 21 22 23 24 23 23 23 22 20 20 20 20 19 19 19 19 19 19 19 19 19 19 19 20 21 21 21 21 21 21 21 21 22 23 24 24 24 24 25 25 24 24 25
20 19 18 17 17 19 21 22 20 17 17 18 17 18 20 20 21 22 22 22 23 22 22 22 23 23 21 19 18 19 20 20 19 19 18 19 21 21 19 19 19 20 20 21 22 22 23 23 23 23 23 23 24 24 24 25 25 25 26 26 26 26 26
25 22 19 17 16 16 17 20 20 16 16 18 20 23 24 22 21 21 22 23 23 21 20 20 21 21 20 18 17 19 20 20 20 20 19 21 23 24 22 22 22 22 22 23 24 24 24 24 25 25 25 26 26 27 27 27 27 27 27 27 27 27 27
27 24 22 20 18 17 16 17 19 20 23 25 26 26 25 23 22 23 24 25 24 24 24 25 25 24 24 23 23 23 24 24 24 24 24 25 27 27 27 26 26 27 27 28 28 28 27 27 27 27 27 28 29 30 30 30 30 30 30 30 30 30 30
29 28 26 24 22 22 22 23 25 28 29 27 27 26 24 23 24 25 25 26 27 28 29 30 30 30 30 30 29 28 29 29 29 29 29 29 30 30 28 28 29 31 31 31 32 31 31 30 30 30 30 30 31 32 33 33 34 34 34 34 34 33 33
34 32 30 29 28 28 28 28 30 32 31 28 27 26 25 25 27 27 27 27 27 29 31 31 31 32 32 32 31 31 32 32 32 32 32 31 32 31 29 28 31 33 34 35 36 36 36 35 34 34 34 33 33 33 34 35 36 37 38 38 37 37 37
38 36 35 34 34 33 33 33 31 31 31 29 28 28 29 30 31 31 31 31 30 32 33 32 32 33 33 34 35 35 33 32 31 31 31 32 32 33 32 32 33 36 37 38 40 41 41 40 40 40 39 39 39 38 38 38 38 39 40 41 41 41 41
41 40 39 39 37 37 37 37 35 34 34 33 32 32 33 35 34 34 34 34 33 33 34 34 35 36 37 37 36 33 32 31 31 31 32 32 33 33 34 35 36 37 38 40 41 42 42 43 44 44 44 44 43 43 42 42 42 42 42 43 44 44 45
43 42 41 41 40 39 39 39 38 38 38 36 35 35 35 36 36 36 35 34 34 34 34 35 36 36 36 35 33 32 32 32 33 33 33 34 34 35 36 37 38 39 40 40 41 43 43 44 45 45 45 46 46 46 46 45 45 45 45 45 47 47 48
45 44 43 43 42 41 39 38 38 38 38 38 37 37 37 37 37 36 34 34 34 35 36 36 36 36 36 35 35 35 35 35 34 35 35 36 36 37 38 39 40 41 41 42 43 44 45 46 47 46 46 46 47 47 47 48 48 47 47 48 50 51 52
43 43 43 43 42 40 39 38 39 39 39 39 39 39 38 37 37 36 36 37 37 38 38 39 39 38 38 38 38 37 37 37 37 37 37 38 39 39 40 40 41 42 43 44 44 45 46 47 48 48 48 48 48 48 49 49 49 48 48 50 52 54 55
40 39 39 39 39 40 40 40 40 40 40 40 41 40 39 39 39 39 40 41 42 41 41 41 41 41 40 40 40 39 39 39 39 40 41 42 43 42 42 41 41 42 43 44 45 46 47 47 48 48 49 49 49 50 50 50 50 49 50 51 53 55 56
37 38 38 38 40 40 41 41 41 42 43 43 43 43 42 42 43 43 43 44 44 43 43 42 42 42 42 41 41 41 41 41 43 44 46 46 46 45 44 43 42 42 43 44 45 46 47 47 48 48 49 49 50 50 50 50 50 51 51 52 53 55 56
40 40 40 41 43 44 45 46 46 46 46 46 45 44 44 45 45 45 45 44 44 43 42 42 42 42 42 42 42 42 44 45 47 48 48 48 48 47 47 46 46 45 45 45 46 46 46 47 47 48 48 49 49 50 50 49 50 50 50 51 52 54 55
42 41 41 43 44 45 46 47 47 47 46 45 44 43 43 44 44 45 45 44 44 43 43 42 42 42 43 43 43 45 47 48 49 49 48 48 47 48 48 48 48 48 47 47 47 46 46 46 47 47 47 48 48 48 48 48 48 48 49 50 51 52 54
43 42 43 44 44 44 45 46 47 46 44 43 42 42 43 43 44 44 44 43 43 44 44 44 44 44 45 45 46 47 48 48 48 48 48 48 48 48 48 48 48 48 48 47 47 47 46 46 46 46 46 47 47 47 47 47 47 48 49 50 50 51 53
47 47 48 48 48 48 48 48 49 48 47 44 41 40 43 45 45 45 46 45 45 46 47 47 47 48 48 48 49 50 50 50 50 49 49 49 48 48 48 47 47 46 46 46 46 46 47 46 46 46 46 46 46 46 47 47 47 48 49 49 50 50 51
52 52 52 51 49 48 48 48 48 49 49 47 43 41 43 46 47 47 48 48 47 47 49 50 50 50 50 51 52 53 53 53 52 51 50 49 49 48 47 46 46 45 45 45 46 46 46 46 46 46 46 46 46 47 47 47 48 48 48 49 50 50 50
57 56 56 55 52 49 47 48 48 49 49 49 47 46 47 50 51 53 53 52 51 50 51 52 53 54 55 56 56 56 55 53 52 52 51 50 49 48 47 47 46 46 46 46 46 46 46 46 46 45 46 46 46 46 47 47 47 48 48 49 49 50 51
59 59 59 59 58 56 54 53 52 52 51 51 51 52 53 55 57 58 58 57 56 56 57 58 58 59 59 59 58 56 55 53 52 51 51 50 49 48 48 47 46 46 46 47 46 46 45 45 45 45 45 45 45 46 46 47 47 48 48 49 49 50 51

ECMWFFLT1_500_spd_042.txt.gz
Wind_Speed
15 14 13 13 13 14 14 14 16 16 15 13 13 13 14 15 16 17 17 15 14 13 13 14 15 16 17 19 20 20 21 21 21 21 21 21 21 21 21 20 20 20 19 20 20 19 18 19 19 19 18 18 18 19 19 19 19 19 19 20 19 20 21
16 16 15 15 15 14 13 13 15 16 15 14 14 16 16 16 17 18 18 17 16 14 14 14 15 16 17 18 19 20 20 21 21 21 21 21 21 21 20 20 20 20 20 20 20 20 19 18 18 18 18 19 19 19 19 19 19 19 20 20 20 20 22
18 18 18 17 16 15 13 12 13 14 15 15 15 17 17 18 17 17 18 18 17 16 15 15 15 15 16 17 18 19 20 21 21 22 21 21 21 20 20 20 20 20 20 20 20 19 19 18 19 19 19 19 20 19 20 21 21 21 22 22 22 22 22
19 19 19 18 17 15 14 13 13 13 14 15 15 16 17 18 18 18 18 18 17 16 15 15 15 15 15 16 18 19 20 21 21 22 21 21 21 20 20 20 19 20 20 21 20 20 20 20 20 20 20 20 20 20 20 21 22 23 23 24 24 23 22
18 18 19 18 18 16 15 15 14 14 15 15 15 16 18 19 19 19 19 18 18 16 15 14 14 14 14 15 17 18 20 21 21 22 22 21 21 20 20 20 19 19 20 20 21 20 20 20 20 20 20 20 19 19 19 21 22 22 23 23 23 23 23
18 19 19 20 19 18 17 17 17 16 16 17 17 17 18 19 19 19 19 19 18 16 15 14 13 13 13 14 15 17 18 19 20 21 21 20 20 20 19 19 19 19 19 19 20 19 19 19 20 20 20 20 18 17 16 19 20 21 22 23 23 23 24
20 21 22 22 21 21 20 20 19 18 17 17 16 16 17 19 19 18 18 17 16 15 14 13 13 13 13 14 15 15 16 17 18 18 19 19 19 18 18 18 18 18 18 18 18 18 18 18 19 19 19 19 18 16 17 19 21 21 22 22 23 23 23
20 22 23 23 22 22 23 21 20 19 17 16 15 15 17 18 18 17 17 16 15 14 13 13 13 13 13 13 14 15 15 16 16 17 17 17 17 17 17 16 16 16 16 16 17 17 17 17 17 17 18 18 18 17 18 20 21 21 21 21 22 23 23
18 19 20 20 20 22 23 22 21 21 19 18 17 17 16 17 17 16 15 15 14 13 13 12 12 13 13 13 14 14 15 15 16 16 17 17 17 17 17 16 16 15 15 15 15 15 15 15 15 16 16 16 17 17 18 18 18 19 19 20 20 20 21
19 17 16 17 19 20 21 21 21 22 21 21 20 18 16 15 15 14 14 14 14 13 13 12 12 12 13 13 13 14 15 15 16 16 17 17 17 17 17 16 16 15 15 15 14 14 14 14 14 14 14 14 15 16 16 16 17 17 17 18 18 18 18
18 18 17 17 18 19 19 20 20 21 22 21 19 17 16 15 15 15 15 15 15 14 14 14 13 13 13 13 14 14 14 15 16 16 17 17 17 17 17 16 16 15 15 14 14 14 14 14 14 14 13 13 13 14 14 14 15 15 16 17 17 17 17
15 17 17 17 17 17 18 19 19 19 18 15 14 14 16 17 17 17 17 17 17 16 15 14 14 14 15 15 15 15 15 15 15 15 15 16 16 16 15 15 15 15 15 14 14 14 14 14 14 14 14 13 13 13 13 13 14 14 15 15 16 16 16
15 16 16 16 16 17 18 19 18 18 16 14 12 14 16 18 18 18 18 19 18 16 15 13 13 13 14 15 15 16 16 15 15 14 13 13 13 13 13 14 14 14 14 14 13 13 12 12 13 13 13 13 13 13 13 14 14 14 14 15 15 16 16
16 16 17 16 17 17 18 19 18 18 17 15 13 13 15 18 18 18 19 19 18 16 15 13 13 13 13 13 14 15 15 15 15 14 13 13 13 12 13 13 13 13 13 13 13 12 12 12 12 12 13 13 13 13 14 14 14 14 15 15 15 16 16
17 17 17 17 17 17 18 18 18 18 17 16 14 14 15 17 18 19 19 20 20 19 17 14 14 14 14 14 14 15 15 14 14 14 14 14 14 14 14 14 14 13 13 13 13 12 12 12 12 12 13 13 13 14 14 15 15 15 16 16 16 16 17
18 17 17 17 17 17 17 18 18 18 17 16 16 15 16 17 19 20 20 20 20 21 19 17 17 16 16 16 16 16 15 15 16 16 16 16 16 16 16 16 16 15 15 15 14 14 14 14 14 14 14 15 15 15 16 16 16 17 17 17 18 18 18
18 18 18 18 18 18 18 18 18 18 17 16 15 15 16 17 18 21 21 21 20 21 20 19 19 19 19 18 18 18 17 17 17 17 18 18 18 19 19 19 19 18 18 18 18 18 18 18 18 17 17 17 18 18 18 19 19 19 19 20 20 20 20
19 19 19 19 19 19 18 17 17 17 16 16 16 16 17 18 19 21 23 22 21 21 21 20 19 19 19 20 20 20 19 20 20 21 22 22 22 21 22 22 22 21 21 21 22 22 22 22 21 21 20 20 20 20 21 21 22 22 22 22 22 23 23
20 21 22 21 21 20 19 17 17 17 17 16 17 17 18 19 20 22 24 24 23 22 20 20 19 19 19 20 21 22 23 24 24 25 26 27 27 26 25 25 25 24 23 23 23 22 23 23 23 23 23 24 25 25 25 25 25 25 25 25 25 26 26
21 21 22 22 22 21 20 19 19 19 18 17 17 17 18 19 20 23 25 25 24 23 22 21 21 21 22 22 23 24 25 25 24 23 24 25 27 27 27 27 27 25 24 23 23 23 24 25 25 25 25 25 26 28 28 29 30 30 30 29 29 30 30
20 21 22 22 23 23 23 22 22 21 20 19 19 19 19 19 20 22 25 26 26 25 25 23 23 23 24 25 26 26 26 25 23 22 21 22 23 24 25 25 26 26 25 25 26 26 28 28 28 29 29 27 28 30 30 31 32 33 33 33 34 34 34
21 21 23 24 25 26 26 24 24 24 24 23 22 22 22 22 22 22 25 27 28 27 26 25 25 25 25 26 27 27 27 27 26 25 25 25 25 25 26 27 28 29 29 30 31 32 32 33 32 33 34 34 35 35 35 34 35 36 36 37 37 38 38
24 25 25 27 28 28 27 26 27 27 27 27 27 26 25 25 25 25 26 28 29 30 30 29 29 29 28 28 28 28 29 29 29 29 29 30 30 31 31 32 33 34 35 37 37 37 36 36 36 36 36 37 39 39 40 40 40 40 40 41 41 41 41
29 29 29 30 31 31 31 30 31 31 31 31 30 30 29 28 29 29 30 30 32 34 35 36 36 35 32 31 31 31 31 31 31 32 32 32 33 34 34 35 35 36 37 38 38 38 38 38 38 38 38 38 39 41 43 44 44 44 44 45 46 45 46
33 34 34 34 35 36 35 35 35 35 35 35 34 34 34 33 33 34 35 35 36 38 39 40 40 38 36 34 35 35 35 34 35 35 35 35 36 37 38 38 39 39 39 39 39 40 40 40 40 40 40 40 40 42 43 45 46 47 47 48 49 49 50
38 38 39 39 39 39 39 39 39 39 38 38 38 39 39 39 39 39 39 40 40 42 42 42 42 40 38 37 38 39 39 39 39 39 40 40 41 41 41 42 42 42 41 41 41 42 42 42 42 42 42 42 43 43 44 45 45 46 47 48 49 50 50
43 42 42 42 41 41 41 40 39 39 39 40 41 42 42 43 44 43 43 44 43 42 43 44 44 43 41 39 40 41 42 43 43 43 44 44 43 43 43 44 44 43 42 41 41 41 41 41 42 43 43 44 44 44 44 45 45 45 46 47 48 49 49
46 44 43 42 41 40 39 38 38 39 41 41 42 44 46 47 47 45 45 46 43 40 41 44 44 44 43 42 42 43 44 45 46 46 45 45 44 44 44 45 45 45 44 43 41 41 41 41 42 43 44 44 44 43 44 44 45 46 47 47 48 48 48
45 44 42 40 39 38 38 40 41 42 43 43 44 45 45 44 44 44 45 47 46 43 43 44 44 44 45 44 44 45 45 46 46 46 45 45 44 44 44 45 45 45 45 44 43 43 43 43 43 44 44 44 44 44 44 44 45 46 47 47 48 48 48
41 39 37 36 37 39 42 44 44 44 45 45 45 45 44 44 46 47 48 49 49 47 47 48 47 47 47 47 47 47 47 46 46 45 45 44 43 44 44 44 44 45 45 45 45 45 45 46 46 46 46 46 46 46 46 46 46 46 47 47 47 48 48
37 36 38 41 44 47 47 46 45 44 45 45 44 43 44 44 46 47 46 46 47 47 47 48 48 48 48 48 48 48 48 47 46 45 44 44 44 45 45 46 46 46 46 46 47 47 47 48 48 49 49 48 48 47 47 47 47 47 47 48 48 48 48
45 47 50 52 52 50 48 47 46 46 45 45 43 43 43 43 43 43 43 42 43 43 43 44 44 45 46 47 48 49 48 47 46 46 45 45 46 46 47 48 48 47 47 47 48 48 48 49 49 49 49 49 48 47 48 49 49 49 48 49 49 49 49
57 58 58 56 54 51 49 48 48 48 47 46 45 44 44 43 43 43 42 42 42 42 42 43 44 45 46 47 48 48 48 48 48 48 48 47 46 46 47 47 47 47 47 48 48 48 48 48 49 49 49 49 49 49 50 51 50 50 49 49 49 50 50
61 61 60 59 57 55 53 52 51 51 51 49 48 47 46 46 46 46 46 45 45 46 46 47 47 47 47 48 49 50 51 51 51 50 48 47 46 47 47 47 47 46 46 46 46 46 47 47 48 48 49 50 51 52 53 52 51 50 50 50 50 50 51
63 63 63 62 60 58 57 56 55 56 55 56 56 56 55 55 54 53 53 51 50 49 49 49 49 50 50 50 50 51 52 52 51 49 48 48 49 49 49 49 48 46 45 44 45 45 46 48 49 51 52 53 54 54 53 52 51 51 51 51 50 50 51
63 63 63 63 62 61 59 58 58 57 57 58 59 60 60 61 61 61 60 59 57 55 52 50 50 52 53 52 52 52 52 52 51 50 50 52 53 53 52 51 49 48 46 46 46 47 49 51 53 54 54 54 54 54 53 52 52 51 51 51 50 50 51
65 64 64 63 63 62 61 60 59 58 58 57 57 58 58 59 59 60 60 60 60 59 58 55 54 56 56 55 55 55 54 54 53 53 53 54 54 53 53 52 50 50 50 49 49 51 53 55 56 55 55 55 54 53 53 52 52 51 51 50 50 50 50

ECMWFFLT1_500_spd_045.txt.gz
Wind_Speed
18 17 15 16 18 19 19 19 18 17 17 16 15 15 14 13 12 12 12 13 13 13 14 15 16 16 15 15 14 15 15 15 16 16 16 17 18 18 18 18 19 19 19 20 20 19 19 18 18 19 19 19 19 19 19 19 18 17 18 18 19 19 19
18 16 15 16 17 18 19 18 17 16 16 16 16 15 15 14 13 13 13 13 13 14 14 15 16 16 16 15 15 15 15 15 15 15 15 16 17 18 17 17 18 18 18 19 19 19 19 19 19 20 20 19 18 18 19 19 19 18 19 19 21 21 21
17 16 16 16 17 18 18 17 16 16 15 15 16 16 16 15 15 14 14 13 13 13 14 15 16 17 17 17 16 15 15 14 14 14 14 14 15 16 16 16 17 17 17 18 17 18 19 18 19 19 19 18 18 18 19 20 20 20 20 20 21 22 22
17 17 17 17 18 18 18 17 16 16 15 15 15 16 16 16 16 15 15 15 14 14 14 15 15 16 17 17 17 16 16 15 14 14 14 14 15 16 16 16 16 17 17 17 16 18 19 18 18 18 17 17 19 21 21 21 22 22 22 22 22 22 22
19 18 18 18 18 19 18 18 17 16 15 15 15 15 16 16 16 16 17 17 17 16 15 16 16 17 17 17 17 17 16 15 15 14 14 14 14 15 16 16 16 17 18 17 18 19 20 19 18 18 18 19 21 22 22 23 23 23 24 24 23 23 23
21 20 19 19 19 20 20 19 18 17 16 15 15 15 16 17 18 18 18 18 18 17 17 17 17 17 17 16 16 15 15 15 14 14 14 13 14 14 15 15 15 16 17 17 19 19 19 19 20 20 21 21 21 23 23 23 24 24 23 22 22 23 23
23 21 20 19 19 21 21 20 20 18 18 17 17 17 17 17 18 18 17 17 17 17 17 17 17 17 16 16 15 13 13 13 12 12 12 12 13 13 13 14 14 15 16 16 18 19 19 19 20 22 21 21 22 22 22 23 23 23 22 21 21 22 23
24 22 21 20 20 21 22 22 21 19 19 19 18 17 16 16 16 16 17 17 17 17 16 17 16 16 16 15 15 13 12 12 11 11 11 12 12 13 13 13 13 14 14 15 16 18 19 18 19 20 20 20 21 21 21 22 22 22 22 22 23 23 24
26 25 24 22 21 20 21 22 21 19 18 18 18 17 16 16 17 18 19 18 17 16 16 16 16 16 16 15 15 15 14 13 12 11 11 11 12 13 13 14 14 14 14 14 15 16 18 18 18 19 19 19 19 20 20 20 20 21 21 21 22 22 22
28 27 26 24 21 19 20 20 19 18 18 17 17 17 17 19 20 20 20 18 16 15 14 14 14 15 15 15 15 15 15 14 14 13 13 12 13 13 13 14 15 15 15 15 15 15 17 17 18 18 18 18 19 19 18 18 19 19 19 19 20 20 20
27 25 25 24 21 18 17 18 18 18 17 17 18 18 18 20 21 20 19 17 16 14 13 13 14 15 15 15 16 16 16 16 16 16 15 15 14 14 14 14 14 15 15 15 15 15 16 16 17 18 18 18 18 18 18 17 18 18 18 18 18 18 18
25 23 23 24 22 20 18 18 18 18 17 17 18 17 16 18 19 19 19 17 16 16 15 15 16 16 17 17 17 17 17 17 17 17 17 17 17 16 15 15 14 14 14 14 15 15 15 16 16 17 17 18 18 18 18 17 17 17 17 17 17 18 18
23 21 20 20 20 21 20 20 19 19 19 18 18 16 15 15 17 18 19 19 19 18 17 17 17 18 18 18 18 18 18 18 17 17 17 16 16 16 15 15 15 14 14 14 14 15 15 15 15 16 16 16 17 17 17 17 17 17 17 17 17 18 18
21 20 19 18 19 21 22 21 21 20 20 19 19 18 16 15 16 18 19 20 20 20 19 18 19 19 19 19 18 17 17 17 16 16 16 16 15 15 15 15 14 14 14 14 14 14 15 15 15 16 16 16 16 16 16 16 17 17 17 17 18 18 19
22 21 20 20 21 23 23 22 21 21 21 21 20 19 18 17 17 18 19 20 20 20 20 20 20 20 20 20 19 17 17 16 16 16 17 16 16 16 15 15 15 15 15 15 15 15 15 15 15 15 16 16 16 16 16 17 17 17 18 18 18 19 19
23 22 23 23 23 24 24 23 23 23 23 22 21 20 18 17 17 18 19 20 21 21 21 20 20 21 21 21 20 19 19 19 19 19 19 19 18 18 17 17 17 17 17 17 17 17 16 16 16 16 16 16 17 17 18 18 18 19 19 19 20 20 20
23 23 23 23 24 25 25 25 25 25 24 23 21 19 18 18 18 18 19 21 22 22 22 22 21 21 22 22 22 22 22 22 22 22 21 21 20 19 19 19 19 20 20 20 19 19 19 19 19 19 19 19 20 20 20 20 21 21 21 21 21 22 22
23 23 23 24 25 25 26 26 26 25 24 23 21 20 19 18 18 18 19 20 21 22 22 22 23 23 22 23 23 22 22 22 23 23 22 22 21 21 21 21 22 23 23 23 23 23 22 22 22 23 23 23 23 23 23 22 22 23 24 24 24 24 25
24 24 24 24 25 25 24 24 25 25 25 24 22 21 20 19 19 19 20 21 21 21 22 22 23 24 23 23 22 21 20 20 21 22 22 23 24 24 25 26 26 27 27 27 26 26 25 25 25 25 25 24 23 23 23 24 24 25 26 27 26 27 28
24 24 24 24 24 24 24 25 25 25 25 24 23 22 21 21 20 20 21 21 22 22 22 23 25 25 25 24 23 21 20 20 21 23 25 26 27 28 29 29 29 30 30 31 30 29 28 27 26 26 25 25 24 25 26 28 29 30 30 30 30 30 31
23 23 24 24 25 26 26 26 26 26 26 25 24 24 23 22 22 21 21 21 23 23 23 24 26 27 26 26 24 23 22 22 22 23 25 28 30 31 31 31 29 28 28 29 30 30 30 29 29 28 28 29 29 29 31 32 34 34 35 36 36 36 36
24 25 25 25 26 26 26 26 26 26 26 26 26 26 26 26 25 24 23 24 26 25 25 26 27 28 29 28 27 26 24 23 22 23 25 28 30 32 33 32 31 29 28 27 28 29 29 29 30 31 31 33 33 34 35 36 36 37 38 39 39 40 41
24 25 25 26 26 26 26 25 25 26 28 29 30 30 30 29 28 26 27 28 29 29 29 29 29 29 30 30 29 29 27 26 26 27 29 30 31 33 34 34 34 33 31 30 30 30 31 32 33 34 36 37 38 39 39 39 38 38 38 39 40 41 42
24 25 25 25 25 25 26 26 27 30 32 32 32 31 30 28 28 29 30 31 30 29 30 30 30 30 30 30 31 31 29 30 32 33 32 31 33 36 37 37 36 35 35 34 34 35 36 36 37 37 38 39 40 41 41 41 41 40 41 41 42 43 44
28 28 29 29 29 29 29 30 31 34 35 36 36 35 33 31 31 32 33 33 32 32 33 33 32 31 31 32 32 33 33 34 36 36 34 32 31 32 34 35 36 35 36 37 38 39 39 40 39 39 40 41 41 42 43 43 44 44 45 45 44 45 46
31 32 33 33 34 34 34 34 36 39 40 40 39 37 35 34 34 34 34 33 34 37 39 40 38 37 36 35 36 36 36 37 38 39 38 37 34 31 31 32 33 35 37 39 40 41 41 41 41 42 42 42 42 42 43 44 45 45 46 47 46 47 48
35 35 36 37 37 37 38 39 41 41 40 40 39 39 39 38 37 37 36 35 36 38 40 40 40 40 40 39 40 40 40 42 43 44 43 41 40 39 38 39 39 40 41 42 42 42 42 42 43 43 44 43 42 42 41 42 43 44 46 47 47 48 48
39 39 40 40 41 42 42 43 44 43 43 44 45 46 45 43 41 40 39 39 39 40 40 40 41 42 42 42 43 43 43 45 47 48 47 46 46 47 48 48 48 47 47 47 46 46 46 46 46 46 46 45 44 43 43 44 44 45 45 46 47 48 48
42 42 41 41 41 42 43 44 46 47 49 50 49 48 47 45 43 42 41 40 41 43 43 42 43 43 43 43 44 44 44 45 47 48 49 49 49 50 50 51 51 51 50 49 49 48 48 48 48 47 47 46 46 46 47 47 48 49 49 49 49 49 49
39 38 37 37 38 38 39 40 42 44 47 49 49 48 47 45 44 43 42 42 43 43 43 43 43 44 43 42 43 44 46 47 49 51 52 52 51 50 50 51 52 52 51 51 50 50 49 48 48 47 47 48 48 48 48 49 49 50 50 50 50 50 50
38 38 40 41 42 42 43 43 43 42 44 46 47 46 45 43 43 44 45 45 43 42 43 44 45 45 45 44 45 47 49 50 52 53 54 54 54 53 53 53 52 52 51 50 50 50 49 48 47 48 50 50 50 49 48 48 49 50 50 50 50 50 51
45 47 49 50 50 49 49 49 48 46 45 45 46 45 45 47 50 52 51 48 45 44 45 45 45 45 46 47 47 48 49 50 51 52 54 54 54 54 53 52 52 52 51 51 50 49 48 48 49 50 51 51 51 50 48 48 49 49 48 47 47 48 49
54 55 55 55 54 53 52 52 52 51 50 50 51 52 53 56 58 58 56 52 49 47 46 46 46 46 46 47 47 48 48 49 49 50 51 51 50 49 49 49 50 50 50 49 49 49 50 50 50 49 49 50 51 50 49 48 47 46 45 45 47 48 50
58 58 57 57 55 54 54 54 54 54 54 56 58 59 60 61 61 60 58 55 52 50 49 49 49 49 48 48 47 47 48 48 48 48 48 48 48 48 48 49 50 49 49 50 50 51 50 49 47 47 48 50 50 51 50 48 46 46 46 47 49 50 51
59 59 59 58 57 57 57 57 56 56 56 57 59 60 60 60 61 59 57 56 55 53 52 52 52 51 50 49 48 48 48 48 48 49 49 50 51 51 50 50 51 50 50 51 51 51 50 48 48 50 51 52 52 52 51 50 49 49 50 51 52 52 52
61 60 60 60 60 59 59 59 59 58 58 58 58 59 59 59 59 59 57 56 55 54 54 55 56 55 54 53 52 52 52 52 53 53 53 53 54 53 52 53 54 53 52 52 52 53 53 52 53 54 54 54 54 53 52 52 52 52 52 54 54 54 54
63 63 63 62 62 61 61 61 61 61 61 59 58 57 58 58 57 56 56 56 55 54 55 56 57 58 59 59 59 59 59 60 60 60 59 58 57 56 56 57 57 57 55 54 54 56 56 56 56 56 55 54 54 53 53 54 54 54 55 56 57 56 55

ECMWFFLT1_500_spd_048.txt.gz
Wind_Speed
19 20 20 19 18 18 18 17 16 16 17 18 19 18 16 16 15 15 15 14 13 13 12 12 12 12 13 15 15 15 15 15 14 13 13 13 12 11 11 11 11 11 12 11 11 12 13 14 15 15 15 16 17 17 17 16 16 16 16 17 16 16 16
19 19 19 19 18 19 18 17 16 15 16 17 17 16 16 16 15 15 15 15 14 14 13 13 12 13 13 14 15 16 16 16 15 14 14 13 12 12 12 12 11 11 11 11 11 12 12 14 14 14 15 16 17 18 17 16 15 16 17 17 18 18 18
18 16 15 15 16 17 18 18 16 15 15 15 15 15 16 16 16 16 16 16 15 15 14 14 13 13 14 14 15 16 16 17 16 15 15 14 13 12 12 12 11 11 10 11 11 11 11 12 12 13 13 14 15 16 16 15 16 17 18 18 19 19 19
18 16 16 15 16 18 19 18 17 16 15 15 15 15 15 15 15 15 16 16 16 16 15 15 15 14 15 15 16 17 17 17 16 15 15 15 14 13 13 13 12 11 10 11 12 11 11 11 12 12 13 13 14 15 15 16 18 19 19 19 20 20 21
18 20 20 20 20 21 20 18 17 16 15 14 14 14 14 15 15 15 15 15 16 16 16 16 16 16 15 16 16 17 18 18 17 17 16 15 14 13 13 13 13 11 11 12 12 13 12 12 12 12 13 13 13 15 16 18 19 20 20 21 21 21 21
19 21 22 23 23 22 21 18 18 16 14 14 13 13 14 14 15 15 15 16 16 16 16 16 15 15 15 16 16 17 18 19 19 18 18 17 16 14 14 14 13 12 12 12 13 13 13 13 12 12 13 13 13 14 16 17 19 20 20 21 21 21 21
21 22 22 22 22 23 21 19 18 15 13 14 15 15 15 15 16 17 16 16 15 15 15 14 14 14 15 15 16 16 17 18 18 18 18 18 17 16 15 15 14 13 12 13 13 14 14 13 13 13 13 13 13 13 15 16 17 18 19 20 21 21 21
21 23 24 23 23 22 21 21 20 16 13 14 16 16 17 17 18 17 16 14 13 13 14 15 16 16 16 16 16 16 16 16 17 17 17 17 17 17 16 16 15 14 14 13 13 14 14 15 15 15 14 13 12 12 13 15 16 16 18 19 20 20 20
21 24 25 24 23 23 23 23 22 19 16 15 17 17 17 17 18 17 16 15 15 15 16 17 17 18 17 16 15 15 15 15 15 16 16 16 16 16 17 17 16 16 16 15 14 14 14 15 16 16 16 15 13 12 13 14 14 15 16 16 18 18 19
22 23 23 24 24 24 25 26 25 22 19 17 17 17 17 17 17 17 17 17 17 17 16 17 17 17 17 16 15 14 14 14 15 15 15 15 15 16 16 17 17 17 17 17 16 16 15 15 16 17 17 17 15 13 14 14 14 14 14 15 16 16 17
22 22 23 23 24 25 27 28 26 22 18 17 16 15 15 15 16 17 17 17 18 17 17 16 15 16 15 15 14 14 15 15 16 16 16 16 16 17 17 17 17 17 18 18 18 17 16 16 16 17 17 18 16 15 14 15 14 14 14 14 15 15 15
22 23 24 23 23 25 28 28 25 20 17 16 15 13 14 14 15 15 16 16 16 16 16 16 16 16 15 15 15 15 15 16 17 18 18 19 18 18 18 18 17 17 17 17 17 17 16 16 16 16 17 17 17 15 15 15 15 15 15 14 15 15 15
23 23 23 23 23 25 26 26 23 20 19 17 14 14 14 15 15 15 15 15 15 16 16 16 17 17 17 17 17 16 16 17 17 18 19 19 19 19 18 18 17 17 16 16 15 15 15 15 15 15 15 16 16 15 15 15 15 15 15 14 14 15 15
23 22 23 23 24 25 26 25 23 22 21 18 16 15 16 17 17 17 17 17 16 17 17 17 18 19 19 19 19 19 18 18 18 18 18 18 18 18 18 18 18 18 17 17 16 16 15 14 14 14 15 15 15 15 15 15 15 14 14 14 14 14 14
22 22 23 24 25 25 23 22 21 22 22 19 18 18 18 18 19 19 19 19 19 19 19 19 20 20 20 21 20 20 19 18 18 18 18 18 18 18 19 19 20 19 19 18 17 16 15 15 15 15 15 15 16 15 15 15 15 15 15 15 15 15 15
21 22 22 23 23 22 20 19 20 21 21 20 20 20 20 20 21 21 21 21 22 22 21 21 20 21 21 21 21 20 19 19 19 18 18 18 19 20 21 21 21 21 20 19 18 17 17 16 16 16 16 17 17 17 17 17 17 17 18 18 18 18 18
19 20 21 21 20 20 21 20 20 20 21 22 22 22 22 22 23 23 23 23 22 22 21 21 20 21 21 21 21 20 20 20 20 20 20 20 21 21 22 22 22 22 21 20 19 19 19 19 19 19 19 19 20 20 20 20 21 21 22 21 20 20 20
17 18 19 20 20 21 23 22 21 21 23 24 24 24 24 24 24 24 23 22 21 21 21 21 20 20 21 21 21 21 21 21 21 21 21 21 21 21 21 22 22 23 22 21 21 21 22 22 22 23 23 22 23 23 23 23 23 24 24 23 21 22 22
15 16 18 21 23 24 25 25 25 25 26 26 26 26 26 25 24 23 22 21 21 21 21 21 20 20 20 21 21 22 22 22 22 22 22 21 20 20 21 22 23 24 24 25 25 25 26 26 27 27 27 25 25 26 26 26 25 25 24 23 23 24 25
17 19 22 25 26 28 28 28 27 27 28 28 27 27 26 25 24 22 21 22 22 22 21 21 21 22 22 21 22 22 23 23 24 23 23 23 21 21 22 23 25 26 27 28 29 29 30 29 29 30 29 29 28 28 29 28 28 27 27 28 28 29 29
19 20 20 21 23 26 28 28 28 28 28 27 26 26 26 25 23 22 22 23 23 23 23 22 21 21 22 21 21 22 23 23 25 26 26 25 24 23 24 25 26 27 29 30 30 30 30 29 29 29 29 29 29 29 29 29 29 30 30 32 33 34 35
19 18 16 16 17 20 21 21 23 25 26 25 24 24 25 25 24 24 25 25 25 26 26 25 23 22 21 21 21 22 22 23 26 28 28 27 27 27 26 25 25 26 29 30 30 30 29 29 28 27 26 27 28 28 29 29 30 32 33 35 37 38 39
17 17 18 18 19 22 22 20 21 23 24 25 24 24 25 26 25 26 27 28 29 30 29 27 26 26 25 24 23 25 25 25 27 28 28 28 29 30 30 28 27 27 29 28 28 28 29 30 29 28 28 28 28 29 30 32 33 35 36 37 39 40 42
17 16 18 19 20 23 24 23 23 22 22 22 23 23 25 26 27 27 29 29 30 32 29 25 25 27 26 26 27 28 28 28 28 29 30 31 31 32 32 31 31 32 32 31 30 29 30 32 31 31 31 31 31 33 34 36 37 38 38 39 41 42 44
19 19 20 21 23 24 25 26 26 25 24 24 23 24 27 29 29 29 30 30 31 33 33 30 30 30 29 30 31 30 29 29 30 31 32 33 34 36 37 37 36 36 36 35 34 33 31 32 32 33 33 33 34 35 37 38 39 39 40 42 43 44 45
22 23 24 24 26 28 29 30 30 29 29 28 27 29 30 32 33 33 32 33 35 36 37 37 36 34 32 32 31 31 31 32 34 36 37 38 38 39 41 42 43 42 40 38 38 37 34 31 31 32 33 34 35 37 38 40 41 42 44 44 45 46 46
27 28 28 29 30 31 32 33 32 32 32 32 32 33 34 35 36 36 36 38 38 36 37 38 38 37 36 36 36 36 37 37 37 38 39 40 41 41 43 45 46 46 45 42 40 40 38 36 34 35 37 39 41 41 42 43 44 46 46 46 47 47 46
31 32 33 33 33 34 35 36 35 35 36 36 36 37 38 38 39 41 41 41 39 39 40 41 42 41 40 39 40 40 40 39 38 39 39 40 41 42 44 46 47 47 47 45 42 40 41 42 43 44 46 47 46 46 46 47 48 48 48 48 49 48 46
36 36 37 38 37 38 39 39 39 39 39 40 40 41 42 42 42 43 43 42 42 43 44 44 43 43 43 43 43 41 39 38 38 38 39 40 40 41 43 45 46 47 47 46 46 44 44 45 46 47 47 47 47 48 49 49 49 49 49 48 47 47 47
39 39 40 41 41 42 43 43 42 43 43 44 44 43 42 41 40 40 41 41 40 41 43 43 43 43 44 44 44 42 40 39 38 38 40 41 41 42 44 45 45 47 49 50 50 50 48 47 47 47 47 47 47 47 48 48 48 47 46 45 45 45 45
42 43 43 43 44 44 44 44 44 44 43 42 42 41 40 40 41 42 43 43 42 42 43 44 46 47 47 45 44 43 43 43 42 43 43 43 43 43 44 45 46 48 51 52 52 52 51 49 49 49 48 47 45 44 44 45 45 44 44 45 44 44 44
44 44 43 43 43 42 42 42 43 42 42 41 41 42 44 46 48 49 49 49 49 49 48 47 47 47 48 47 46 48 50 49 48 48 47 45 45 45 45 46 47 48 50 51 51 51 51 50 49 47 46 45 44 43 42 43 44 44 45 45 45 45 46
43 43 42 41 41 41 41 42 43 43 44 45 47 50 53 55 57 57 56 56 55 53 51 50 49 49 50 51 53 54 55 53 52 51 49 47 46 45 46 46 48 49 50 50 50 51 50 49 47 45 45 45 46 45 44 44 44 44 44 45 46 48 50
42 42 42 42 42 43 44 46 49 51 53 54 56 58 60 61 60 59 59 58 57 55 53 53 54 54 55 56 56 56 55 54 52 50 49 48 47 46 47 49 49 50 50 50 50 50 50 49 47 46 47 47 48 48 47 47 47 47 47 49 51 53 54
45 47 48 48 49 51 53 55 57 58 59 60 59 59 60 60 60 60 59 59 58 57 55 54 55 56 56 56 57 56 54 53 52 51 51 51 49 47 48 50 51 50 50 51 51 51 50 50 49 49 49 49 50 50 51 51 52 52 53 55 57 58 58
56 57 57 57 57 58 58 59 59 59 59 60 59 59 59 60 60 60 60 60 60 59 57 56 56 56 56 56 56 55 54 54 54 53 53 53 52 50 50 52 52 52 52 52 52 52 52 52 52 52 51 52 53 54 55 56 56 57 58 58 59 59 58
61 61 60 59 59 59 60 60 60 60 61 61 61 61 61 62 62 62 61 62 62 62 61 59 56 54 53 51 52 54 54 55 55 54 55 55 53 53 54 56 56 56 56 56 56 57 57 58 58 57 57 56 57 57 58 57 58 58 59 60 60 59 57